W4HSV Weather Reports


time (UTC)temp
C
wind
direction
speed
KPH
gust
KPH
rain 1hr
cm
rain 24hr
cm
rain mn
cm
humidity
%
barometer
mb
20260508044131 12 340 1.6 4.8 0.00 0.79 0.79 87 1015.4
20260508044022 12 341 1.6 4.8 0.00 0.79 0.79 87 1015.3
20260508043930 12 342 1.6 4.8 0.00 0.79 0.79 87 1015.5
20260508043818 12 346 1.6 3.2 0.00 0.79 0.79 87 1015.4
20260508043725 12 355 0.0 3.2 0.00 0.79 0.79 87 1015.4
20260508043611 12 355 0.0 3.2 0.00 0.79 0.79 87 1015.3
20260508043545 12 360 0.0 3.2 0.00 0.79 0.79 86 1015.3
20260508043319 12 360 1.6 3.2 0.00 0.79 0.79 86 1015.3
20260508043227 12 360 1.6 3.2 0.00 0.79 0.79 86 1015.3
20260508043114 12 360 1.6 3.2 0.00 0.79 0.79 86 1015.3
20260508043041 12 360 1.6 4.8 0.00 0.79 0.79 86 1015.3
20260508042911 12 360 1.6 4.8 0.00 0.79 0.79 86 1015.3
20260508042819 12 360 1.6 4.8 0.00 0.79 0.79 86 1015.3
20260508042725 12 360 1.6 4.8 0.00 0.79 0.79 86 1015.3
20260508042612 12 360 1.6 4.8 0.00 0.79 0.79 86 1015.3
20260508042520 12 360 1.6 4.8 0.00 0.79 0.79 86 1015.4
20260508042447 12 360 1.6 4.8 0.00 0.79 0.79 86 1015.4
20260508042318 12 360 1.6 4.8 0.00 0.79 0.79 86 1015.4
20260508042225 12 360 1.6 4.8 0.00 0.79 0.79 86 1015.4
20260508042133 12 360 1.6 4.8 0.00 0.79 0.79 87 1015.3
20260508042104 12 360 1.6 4.8 0.00 0.79 0.79 87 1015.4
20260508041821 12 344 0.0 0.0 0.00 0.79 0.79 87 1015.3
20260508041750 12 344 0.0 0.0 0.00 0.79 0.79 86 1015.3
20260508041618 12 344 0.0 0.0 0.00 0.79 0.79 86 1015.4
20260508041544 12 344 0.0 0.0 0.00 0.79 0.79 86 1015.4
20260508041411 12 344 0.0 0.0 0.00 0.79 0.79 86 1015.5
20260508041339 12 344 0.0 0.0 0.00 0.79 0.79 86 1015.5
20260508041226 12 344 0.0 0.0 0.00 0.79 0.79 86 1015.5
20260508041117 12 344 0.0 0.0 0.00 0.79 0.79 86 1015.5
20260508041025 12 344 0.0 0.0 0.00 0.79 0.79 86 1015.5
20260508040913 12 344 0.0 0.0 0.00 0.79 0.79 86 1015.5
20260508040821 12 344 0.0 1.6 0.00 0.79 0.79 86 1015.5
20260508040729 12 344 0.0 1.6 0.00 0.79 0.79 86 1015.6
20260508040621 12 343 0.0 1.6 0.00 0.79 0.79 86 1015.5
20260508040551 12 343 0.0 1.6 0.00 0.79 0.79 86 1015.5
20260508040325 12 333 0.0 1.6 0.00 0.79 0.79 86 1015.4
20260508040211 12 329 0.0 1.6 0.00 0.79 0.79 86 1015.4
20260508040120 12 329 0.0 1.6 0.00 0.79 0.79 86 1015.5
20260508040030 12 329 0.0 1.6 0.00 0.79 0.79 86 1015.5
20260508035916 12 329 0.0 3.2 0.00 0.79 0.79 86 1015.4
20260508035844 12 321 0.0 3.2 0.00 0.79 0.79 87 1015.4
20260508035730 12 311 0.0 3.2 0.00 0.79 0.79 86 1015.5
20260508035617 12 305 0.0 3.2 0.00 0.79 0.79 87 1015.5
20260508035546 12 305 0.0 3.2 0.00 0.79 0.79 87 1015.5
20260508035437 12 299 0.0 3.2 0.00 0.79 0.79 87 1015.5
20260508035324 12 300 0.0 3.2 0.00 0.79 0.79 86 1015.5
20260508035252 12 319 0.0 3.2 0.00 0.79 0.79 86 1015.5
20260508035138 12 319 0.0 3.2 0.00 0.79 0.79 86 1015.4
20260508035046 12 319 0.0 1.6 0.00 0.79 0.79 86 1015.5
20260508034839 12 316 0.0 1.6 0.00 0.79 0.79 86 1015.4
20260508034745 12 316 0.0 1.6 0.00 0.79 0.79 86 1015.4
20260508034616 12 294 0.0 1.6 0.00 0.79 0.79 86 1015.4
20260508034523 12 294 0.0 1.6 0.00 0.79 0.79 86 1015.4
20260508034450 12 294 0.0 1.6 0.00 0.79 0.79 86 1015.4
20260508034316 12 294 0.0 1.6 0.00 0.89 0.79 85 1015.4
20260508034223 12 294 0.0 1.6 0.00 0.89 0.79 85 1015.4
20260508034114 12 294 0.0 1.6 0.00 0.89 0.79 85 1015.4
20260508034022 12 294 0.0 1.6 0.00 0.89 0.79 85 1015.4
20260508033951 12 294 0.0 0.0 0.00 0.89 0.79 85 1015.4
20260508033818 12 294 0.0 0.0 0.00 0.89 0.79 85 1015.3
20260508033725 12 294 0.0 0.0 0.00 0.89 0.79 85 1015.3
20260508033613 13 294 0.0 3.2 0.00 0.89 0.79 85 1015.4
20260508033548 13 294 0.0 3.2 0.00 0.89 0.79 85 1015.4
20260508033342 13 294 0.0 3.2 0.00 0.89 0.79 84 1015.5
20260508033228 13 294 0.0 3.2 0.00 0.89 0.79 84 1015.5
20260508033116 13 294 0.0 3.2 0.00 0.89 0.79 84 1015.5
20260508033025 13 294 0.0 3.2 0.00 0.89 0.79 84 1015.5
20260508032916 13 294 1.6 3.2 0.00 0.89 0.79 84 1015.5
20260508032824 13 294 1.6 4.8 0.00 0.89 0.79 83 1015.5
20260508032712 13 294 1.6 4.8 0.00 0.89 0.79 83 1015.5
20260508032640 13 294 1.6 4.8 0.00 0.89 0.79 83 1015.3
20260508032527 13 294 1.6 4.8 0.00 0.89 0.79 83 1015.3
20260508032415 13 299 0.0 4.8 0.00 0.89 0.79 83 1015.3
20260508032346 13 325 0.0 4.8 0.00 0.89 0.79 83 1015.3
20260508032213 13 327 1.6 4.8 0.00 0.89 0.79 83 1015.4
20260508032121 13 331 1.6 4.8 0.00 0.89 0.79 83 1015.3
20260508032052 13 331 3.2 4.8 0.00 0.89 0.79 82 1015.3
20260508031825 13 348 3.2 4.8 0.00 0.89 0.79 82 1015.4
20260508031718 13 346 3.2 3.2 0.00 0.89 0.79 82 1015.4
20260508031625 13 346 1.6 3.2 0.00 0.89 0.79 82 1015.4
20260508031534 13 346 1.6 4.8 0.00 0.89 0.79 82 1015.4
20260508031440 13 346 1.6 4.8 0.00 0.89 0.79 81 1015.5
20260508031326 13 346 1.6 4.8 0.00 0.89 0.79 81 1015.5
20260508031213 13 346 1.6 4.8 0.00 0.89 0.79 81 1015.4
20260508031125 13 347 3.2 4.8 0.00 0.89 0.79 81 1015.4
20260508031013 13 347 1.6 4.8 0.00 0.89 0.79 81 1015.2
20260508030942 13 346 3.2 4.8 0.00 0.89 0.79 81 1015.3
20260508030848 13 346 3.2 4.8 0.00 0.89 0.79 81 1015.3
20260508030713 13 340 3.2 4.8 0.00 0.89 0.79 81 1015.2
20260508030622 13 339 3.2 4.8 0.00 0.89 0.79 81 1015.2
20260508030555 13 340 3.2 4.8 0.00 0.89 0.79 81 1015.2
20260508030329 13 331 1.6 4.8 0.00 0.89 0.79 81 1015.3
20260508030218 13 299 0.0 0.0 0.00 0.89 0.79 80 1015.3
20260508030125 13 299 0.0 0.0 0.00 0.89 0.79 80 1015.3
20260508030017 13 299 0.0 0.0 0.00 0.89 0.79 80 1015.2
20260508025924 13 299 0.0 0.0 0.00 0.89 0.79 80 1015.2
20260508025813 13 299 0.0 0.0 0.00 0.89 0.79 80 1015.3
20260508025721 13 299 0.0 0.0 0.00 0.89 0.79 80 1015.3
20260508025629 13 299 0.0 0.0 0.00 0.89 0.79 80 1015.3
20260508025516 13 299 0.0 0.0 0.00 0.89 0.79 80 1015.2
20260508025427 13 299 0.0 0.0 0.00 0.89 0.79 80 1015.2
20260508025315 14 299 0.0 3.2 0.00 0.89 0.79 80 1015.2
20260508025243 14 299 0.0 3.2 0.00 0.89 0.79 80 1015.2
20260508025130 14 299 0.0 3.2 0.00 0.89 0.79 80 1015.2
20260508025045 14 299 0.0 3.2 0.00 0.89 0.79 80 1015.2
20260508024818 14 299 0.0 3.2 0.00 0.89 0.79 79 1015.1
20260508024724 14 299 0.0 3.2 0.00 0.89 0.79 79 1015.1
20260508024612 14 299 0.0 3.2 0.00 0.89 0.79 79 1015.1
20260508024520 14 299 1.6 3.2 0.00 0.89 0.79 78 1015.1
20260508024429 14 299 1.6 3.2 0.00 0.89 0.79 78 1015.1
20260508024321 14 333 3.2 3.2 0.00 0.99 0.79 77 1015.1
20260508024228 14 333 1.6 3.2 0.00 0.99 0.79 77 1015.1
20260508024116 14 333 1.6 3.2 0.00 0.99 0.79 77 1015.0
20260508024024 14 333 3.2 3.2 0.00 0.99 0.79 77 1015.0
20260508023913 14 333 3.2 3.2 0.00 0.99 0.79 76 1015.1
20260508023824 14 333 3.2 3.2 0.00 0.99 0.79 76 1015.1
20260508023711 14 333 3.2 3.2 0.00 0.99 0.79 76 1015.1
20260508023638 14 333 1.6 3.2 0.00 0.99 0.79 76 1015.1
20260508023609 14 333 1.6 3.2 0.00 0.99 0.79 76 1015.1
20260508023321 15 333 1.6 3.2 0.00 0.99 0.79 76 1015.0
20260508023211 15 333 1.6 3.2 0.00 0.99 0.79 75 1014.9
20260508023118 15 333 0.0 1.6 0.00 0.99 0.79 75 1014.9
20260508023026 15 333 0.0 1.6 0.00 0.99 0.79 75 1014.9
20260508022913 15 333 0.0 1.6 0.00 0.99 0.79 75 1014.9
20260508022820 15 333 0.0 1.6 0.00 0.99 0.79 75 1015.0
20260508022748 15 333 0.0 1.6 0.00 0.99 0.79 75 1015.0
20260508022618 15 333 0.0 0.0 0.00 0.99 0.79 75 1015.0
20260508022527 15 333 0.0 0.0 0.00 0.99 0.79 75 1015.0
20260508022414 15 333 0.0 0.0 0.00 0.99 0.79 75 1015.0
20260508022341 15 333 0.0 0.0 0.00 0.99 0.79 75 1014.9
20260508022228 15 333 0.0 0.0 0.00 0.99 0.79 74 1014.9
20260508022116 15 333 0.0 0.0 0.00 0.99 0.79 75 1014.9
20260508022051 15 333 0.0 0.0 0.00 0.99 0.79 75 1014.9
20260508021843 15 333 0.0 0.0 0.00 0.99 0.79 74 1015.0
20260508021729 15 333 0.0 0.0 0.00 0.99 0.79 74 1014.9
20260508021617 15 333 0.0 0.0 0.00 0.99 0.79 74 1014.9
20260508021544 15 333 0.0 0.0 0.00 0.99 0.79 74 1014.9
20260508021413 15 333 0.0 0.0 0.00 0.99 0.79 74 1014.9
20260508021322 15 333 0.0 1.6 0.00 0.99 0.79 74 1014.9
20260508021230 15 333 0.0 3.2 0.00 0.99 0.79 74 1014.9
20260508021117 15 333 0.0 3.2 0.00 0.99 0.79 74 1014.7
20260508021025 15 333 0.0 3.2 0.00 0.99 0.79 74 1014.7
20260508020916 15 333 0.0 3.2 0.00 0.99 0.79 74 1014.7
20260508020824 15 333 0.0 3.2 0.00 0.99 0.79 74 1014.7
20260508020731 15 333 0.0 3.2 0.00 0.99 0.79 73 1014.8
20260508020700 15 333 1.6 3.2 0.00 0.99 0.79 73 1014.7
20260508020547 15 331 1.6 3.2 0.00 0.99 0.79 73 1014.7
20260508020321 15 329 1.6 3.2 0.00 0.99 0.79 73 1014.8
20260508020213 15 298 0.0 1.6 0.00 0.99 0.79 73 1014.9
20260508020120 15 294 0.0 1.6 0.00 0.99 0.79 73 1014.8
20260508020028 15 294 0.0 0.0 0.00 0.99 0.79 73 1014.8
20260508015915 15 294 0.0 0.0 0.00 0.99 0.79 73 1014.8
20260508015822 15 294 0.0 0.0 0.00 0.99 0.79 73 1014.8
20260508015713 15 294 0.0 0.0 0.00 0.99 0.79 73 1014.8
20260508015620 15 294 0.0 0.0 0.00 0.99 0.79 72 1014.8
20260508015527 15 294 0.0 0.0 0.00 0.99 0.79 72 1014.8
20260508015414 15 294 0.0 0.0 0.00 0.99 0.79 72 1014.8
20260508015320 15 297 0.0 0.0 0.00 0.99 0.79 72 1014.8
20260508015211 15 297 0.0 0.0 0.00 0.99 0.79 72 1014.8
20260508015138 15 297 0.0 0.0 0.00 0.99 0.79 72 1014.8
20260508015108 15 297 0.0 0.0 0.00 0.99 0.79 73 1014.6
20260508014820 15 297 0.0 0.0 0.00 0.99 0.79 73 1014.5
20260508014726 15 297 0.0 0.0 0.00 0.99 0.79 73 1014.5
20260508014619 15 297 0.0 0.0 0.00 0.99 0.79 73 1014.6
20260508014526 16 297 0.0 0.0 0.00 0.99 0.79 72 1014.6
20260508014413 16 297 0.0 0.0 0.00 0.99 0.79 72 1014.6
20260508014341 16 297 0.0 0.0 0.00 0.99 0.79 72 1014.6
20260508014227 16 297 0.0 0.0 0.00 0.99 0.79 72 1014.6
20260508014114 16 297 0.0 0.0 0.00 0.99 0.79 72 1014.5
20260508014026 16 297 0.0 0.0 0.00 0.99 0.79 72 1014.5
20260508013914 16 297 0.0 0.0 0.00 0.99 0.79 71 1014.6
20260508013820 16 297 0.0 0.0 0.00 0.99 0.79 71 1014.6
20260508013748 16 297 0.0 1.6 0.00 0.99 0.79 71 1014.6
20260508013614 16 297 0.0 3.2 0.00 0.99 0.79 71 1014.5
20260508013548 16 297 0.0 3.2 0.00 0.99 0.79 70 1014.5
20260508013341 16 297 0.0 3.2 0.00 0.99 0.79 70 1014.5
20260508013228 16 297 0.0 3.2 0.00 0.99 0.79 70 1014.5
20260508013137 16 297 0.0 3.2 0.00 0.99 0.79 70 1014.5
20260508013023 16 297 0.0 3.2 0.00 0.99 0.79 70 1014.5
20260508012951 16 297 1.6 3.2 0.00 0.99 0.79 70 1014.4
20260508012837 16 297 1.6 3.2 0.00 0.99 0.79 69 1014.6
20260508012727 16 16 0.0 3.2 0.00 0.99 0.79 69 1014.6
20260508012615 16 16 0.0 3.2 0.00 0.99 0.79 68 1014.4
20260508012523 16 16 0.0 3.2 0.00 0.99 0.79 68 1014.4
20260508012430 16 16 0.0 3.2 0.00 0.99 0.79 68 1014.5
20260508012317 16 16 0.0 3.2 0.00 0.99 0.79 68 1014.4
20260508012225 16 16 1.6 3.2 0.00 0.99 0.79 68 1014.4
20260508012157 16 16 1.6 3.2 0.00 0.99 0.79 68 1014.4
20260508012108 16 16 1.6 4.8 0.00 0.99 0.79 68 1014.4
20260508011820 16 16 1.6 4.8 0.00 0.99 0.79 68 1014.3
20260508011748 16 16 3.2 4.8 0.00 0.99 0.79 68 1014.3
20260508011613 16 16 3.2 4.8 0.00 0.99 0.79 67 1014.3
20260508011526 16 16 3.2 4.8 0.00 0.99 0.79 67 1014.3
20260508011413 16 16 3.2 4.8 0.00 0.99 0.79 67 1014.2
20260508011322 16 16 3.2 4.8 0.00 0.99 0.79 66 1014.2
20260508011230 16 16 3.2 4.8 0.00 0.99 0.79 66 1014.3
20260508011119 17 19 3.2 4.8 0.00 0.99 0.79 66 1014.1
20260508011026 17 11 3.2 4.8 0.00 0.99 0.79 66 1014.1
20260508010917 17 360 3.2 4.8 0.00 0.99 0.79 65 1014.1
20260508010824 17 360 3.2 4.8 0.00 0.99 0.79 65 1014.1
20260508010712 17 346 3.2 4.8 0.00 0.99 0.79 64 1014.2
20260508010619 17 334 3.2 4.8 0.00 0.99 0.79 64 1014.2
20260508010552 17 331 3.2 4.8 0.00 0.99 0.79 64 1014.2
20260508010325 17 347 3.2 4.8 0.00 0.99 0.79 63 1014.1
20260508010232 17 355 3.2 4.8 0.00 0.99 0.79 63 1014.1
20260508010118 17 355 3.2 4.8 0.00 0.99 0.79 62 1014.0
20260508010026 17 335 3.2 4.8 0.00 0.99 0.79 62 1014.0
20260508005912 17 332 3.2 4.8 0.00 0.99 0.79 62 1014.0
20260508005823 17 333 3.2 4.8 0.00 0.99 0.79 62 1014.0
20260508005712 17 329 3.2 4.8 0.00 0.99 0.79 63 1014.0
20260508005619 17 319 3.2 4.8 0.00 0.99 0.79 63 1014.0
20260508005526 17 322 1.6 4.8 0.00 0.99 0.79 62 1014.0
20260508005413 17 319 1.6 4.8 0.00 0.99 0.79 63 1014.1
20260508005325 17 319 3.2 4.8 0.00 0.99 0.79 63 1014.1
20260508005212 17 317 3.2 4.8 0.00 0.99 0.79 63 1014.2
20260508005120 17 314 1.6 4.8 0.00 0.99 0.79 63 1014.1
20260508005050 17 298 1.6 3.2 0.00 0.99 0.79 63 1014.1
20260508004824 17 298 3.2 3.2 0.00 0.99 0.79 63 1014.1
20260508004716 17 297 1.6 3.2 0.00 0.99 0.79 63 1014.2
20260508004624 17 297 1.6 3.2 0.00 0.99 0.79 63 1014.2
20260508004531 17 292 3.2 3.2 0.00 0.99 0.79 63 1014.3
20260508004419 17 298 1.6 3.2 0.00 0.99 0.79 63 1014.2
20260508004326 17 298 1.6 3.2 0.00 0.99 0.79 63 1014.2
20260508004216 17 289 1.6 3.2 0.00 0.99 0.79 62 1014.2
20260508004125 17 294 1.6 3.2 0.00 0.99 0.79 62 1014.2
20260508004011 17 294 1.6 3.2 0.00 0.99 0.79 61 1014.1
20260508003918 18 290 1.6 3.2 0.00 0.99 0.79 61 1014.2
20260508003825 18 291 1.6 4.8 0.00 0.99 0.79 61 1014.2
20260508003712 18 291 1.6 4.8 0.00 0.99 0.79 61 1014.2
20260508003624 18 293 1.6 4.8 0.00 0.99 0.79 61 1014.2
20260508003556 18 294 1.6 6.4 0.00 0.99 0.79 61 1014.1
20260508003330 18 311 1.6 6.4 0.00 0.99 0.79 61 1014.1
20260508003217 18 311 1.6 6.4 0.00 0.99 0.79 60 1014.0
20260508003129 18 311 1.6 8.0 0.00 0.99 0.79 60 1014.0
20260508003018 18 312 3.2 8.0 0.00 0.99 0.79 59 1014.1
20260508002925 18 316 3.2 8.0 0.00 0.99 0.79 59 1014.1
20260508002813 18 310 3.2 8.0 0.00 0.99 0.79 57 1014.1
20260508002740 18 321 4.8 8.0 0.00 0.99 0.79 57 1014.0
20260508002625 18 317 4.8 8.0 0.00 0.99 0.79 57 1014.0
20260508002517 18 308 4.8 8.0 0.00 0.99 0.79 57 1014.1
20260508002444 18 298 4.8 8.0 0.00 0.99 0.79 57 1014.1
20260508002350 18 321 4.8 8.0 0.00 0.99 0.79 57 1014.1
20260508002217 18 333 4.8 8.0 0.00 0.99 0.79 56 1014.0
20260508002145 18 309 4.8 6.4 0.00 0.99 0.79 56 1014.0
20260508002054 18 318 4.8 6.4 0.00 0.99 0.79 56 1013.9
20260508001812 18 299 3.2 6.4 0.00 0.99 0.79 56 1013.9
20260508001719 18 320 3.2 6.4 0.00 0.99 0.79 56 1014.0
20260508001645 18 326 3.2 6.4 0.00 0.99 0.79 55 1014.0
20260508001531 18 321 3.2 8.0 0.00 0.99 0.79 56 1013.9
20260508001418 18 302 4.8 8.0 0.00 0.99 0.79 55 1013.9
20260508001325 18 328 4.8 8.0 0.00 0.99 0.79 55 1013.9
20260508001217 18 320 3.2 8.0 0.00 0.99 0.79 55 1013.8
20260508001124 18 320 4.8 8.0 0.00 0.99 0.79 55 1013.8
20260508001032 18 337 4.8 8.0 0.00 0.99 0.79 55 1013.8
20260508000918 18 305 3.2 8.0 0.00 0.99 0.79 55 1013.8
20260508000845 18 312 4.8 8.0 0.00 0.99 0.79 55 1013.8
20260508000733 18 321 4.8 8.0 0.00 0.99 0.79 54 1013.8
20260508000623 18 318 3.2 6.4 0.00 0.99 0.79 54 1013.8
20260508000553 18 288 3.2 6.4 0.00 0.99 0.79 54 1013.8
20260508000327 18 303 3.2 9.7 0.00 0.99 0.79 54 1013.7
20260508000215 18 321 3.2 9.7 0.00 0.99 0.79 54 1013.7
20260508000122 19 332 4.8 12.9 0.00 0.99 0.79 54 1013.7
20260508000014 19 310 4.8 12.9 0.00 0.99 0.79 54 1013.7
20260507235922 19 305 4.8 12.9 0.00 0.99 0.79 54 1013.7
20260507235828 19 300 4.8 12.9 0.00 0.99 0.79 54 1013.6
20260507235715 19 327 4.8 12.9 0.00 0.99 0.79 53 1013.5
20260507235622 19 319 6.4 12.9 0.00 0.99 0.79 53 1013.5
20260507235535 19 311 8.0 12.9 0.00 0.99 0.79 54 1013.5
20260507235422 19 323 8.0 12.9 0.00 0.99 0.79 53 1013.5
20260507235329 19 333 6.4 12.9 0.00 0.99 0.79 53 1013.5
20260507235215 19 321 6.4 9.7 0.00 0.99 0.79 53 1013.4
20260507235124 19 325 6.4 9.7 0.00 0.99 0.79 53 1013.4
20260507235059 19 321 8.0 9.7 0.00 0.99 0.79 53 1013.3
20260507234833 19 340 6.4 9.7 0.00 0.99 0.79 53 1013.5
20260507234740 19 322 4.8 9.7 0.00 0.99 0.79 53 1013.5
20260507234646 19 342 6.4 9.7 0.00 0.99 0.79 53 1013.5
20260507234532 19 310 6.4 11.3 0.00 0.99 0.79 53 1013.5
20260507234418 19 297 6.4 9.7 0.00 1.17 0.79 53 1013.5
20260507234325 19 300 6.4 12.9 0.00 1.17 0.79 53 1013.5
20260507234233 19 319 6.4 12.9 0.00 1.17 0.79 53 1013.5
20260507234123 19 311 6.4 12.9 0.00 1.17 0.79 53 1013.5
20260507234030 19 290 4.8 12.9 0.00 1.17 0.79 53 1013.5
20260507233918 19 333 6.4 12.9 0.00 1.17 0.79 53 1013.5
20260507233825 19 298 6.4 12.9 0.00 1.17 0.79 53 1013.5
20260507233711 19 344 8.0 16.1 0.00 1.17 0.79 53 1013.5
20260507233622 19 320 8.0 16.1 0.00 1.17 0.79 52 1013.5
20260507233552 19 316 8.0 16.1 0.00 1.17 0.79 52 1013.5
20260507233325 19 321 8.0 16.1 0.00 1.17 0.79 52 1013.5
20260507233212 19 325 6.4 16.1 0.00 1.17 0.79 52 1013.4
20260507233120 19 315 6.4 16.1 0.00 1.17 0.79 52 1013.5
20260507233010 19 332 8.0 16.1 0.00 1.17 0.79 52 1013.4
20260507232918 19 308 8.0 16.1 0.00 1.17 0.79 52 1013.3
20260507232827 19 323 8.0 16.1 0.00 1.17 0.79 52 1013.3
20260507232714 19 344 8.0 12.9 0.00 1.17 0.79 52 1013.4
20260507232620 20 324 9.7 12.9 0.00 1.17 0.79 52 1013.4
20260507232513 20 319 9.7 12.9 0.00 1.17 0.79 52 1013.4
20260507232441 20 344 8.0 12.9 0.00 1.17 0.79 51 1013.4
20260507232327 20 325 6.4 14.5 0.00 1.17 0.79 51 1013.4
20260507232235 20 298 6.4 14.5 0.00 1.17 0.79 52 1013.5
20260507232122 20 320 6.4 16.1 0.00 1.17 0.79 52 1013.5
20260507232056 20 350 8.0 16.1 0.00 1.17 0.79 52 1013.5
20260507231830 20 344 8.0 16.1 0.00 1.17 0.79 51 1013.6
20260507231719 20 355 8.0 16.1 0.00 1.17 0.79 52 1013.6
20260507231625 20 329 9.7 16.1 0.00 1.17 0.79 52 1013.6
20260507231513 20 331 8.0 16.1 0.00 1.17 0.79 51 1013.5
20260507231420 20 355 6.4 16.1 0.00 1.17 0.79 51 1013.4
20260507231352 20 5 8.0 16.1 0.00 1.17 0.79 51 1013.4
20260507231217 20 303 11.3 16.1 0.00 1.17 0.79 51 1013.5
20260507231145 20 318 11.3 16.1 0.00 1.17 0.79 51 1013.5
20260507231012 20 334 9.7 16.1 0.00 1.17 0.79 51 1013.5
20260507230921 20 360 9.7 19.3 0.00 1.17 0.79 51 1013.6
20260507230829 20 322 8.0 19.3 0.00 1.17 0.79 50 1013.6
20260507230721 20 346 8.0 19.3 0.00 1.17 0.79 51 1013.7
20260507230628 20 313 9.7 19.3 0.00 1.17 0.79 50 1013.6
20260507230600 20 325 11.3 19.3 0.00 1.17 0.79 50 1013.6
20260507230313 20 315 12.9 19.3 0.00 1.17 0.79 50 1013.5
20260507230224 20 298 11.3 19.3 0.00 1.17 0.79 50 1013.5
20260507230113 20 324 12.9 19.3 0.00 1.17 0.79 52 1013.4
20260507230021 20 346 11.3 19.3 0.00 1.17 0.79 52 1013.5
20260507225928 20 278 6.4 17.7 0.00 1.17 0.79 52 1013.5
20260507225817 20 340 6.4 19.3 0.00 1.17 0.79 52 1013.4
20260507225744 20 302 8.0 20.9 0.00 1.17 0.79 52 1013.4
20260507225612 20 350 9.7 20.9 0.00 1.17 0.79 52 1013.4
20260507225521 20 327 9.7 20.9 0.00 1.17 0.79 52 1013.4
20260507225430 20 360 9.7 20.9 0.00 1.17 0.79 52 1013.4
20260507225317 20 347 9.7 20.9 0.00 1.17 0.79 51 1013.5
20260507225225 20 311 12.9 20.9 0.00 1.17 0.79 50 1013.5
20260507225115 20 308 14.5 20.9 0.00 1.17 0.79 50 1013.5
20260507225045 20 344 14.5 20.9 0.00 1.17 0.79 51 1013.5
20260507224819 21 294 11.3 17.7 0.00 1.17 0.79 51 1013.4
20260507224725 21 307 11.3 17.7 0.00 1.17 0.79 51 1013.4
20260507224634 21 322 11.3 17.7 0.00 1.17 0.79 50 1013.4
20260507224524 21 330 9.7 17.7 0.00 1.17 0.79 51 1013.4
20260507224432 21 327 11.3 17.7 0.00 1.40 0.79 51 1013.4
20260507224319 21 317 11.3 17.7 0.00 1.40 0.79 50 1013.5
20260507224227 21 320 12.9 17.7 0.00 1.40 0.79 50 1013.5
20260507224114 21 302 11.3 17.7 0.00 1.40 0.79 51 1013.5
20260507224042 21 325 9.7 19.3 0.00 1.40 0.79 51 1013.5
20260507223948 21 326 9.7 19.3 0.00 1.40 0.79 51 1013.6
20260507223818 21 341 6.4 19.3 0.00 1.40 0.79 51 1013.5
20260507223725 21 322 8.0 19.3 0.00 1.40 0.79 51 1013.5
20260507223614 21 336 11.3 19.3 0.00 1.40 0.79 50 1013.6
20260507223545 21 317 11.3 19.3 0.00 1.40 0.79 50 1013.6
20260507223321 21 319 12.9 19.3 0.00 1.40 0.79 50 1013.5
20260507223229 21 320 11.3 19.3 0.00 1.40 0.79 50 1013.5
20260507223118 21 319 11.3 17.7 0.00 1.40 0.79 51 1013.5
20260507223025 21 338 9.7 17.7 0.00 1.40 0.79 51 1013.5
20260507222911 21 348 8.0 16.1 0.00 1.40 0.79 52 1013.5
20260507222820 21 306 8.0 16.1 0.00 1.40 0.79 51 1013.4
20260507222711 21 325 8.0 16.1 0.00 1.40 0.79 51 1013.4
20260507222619 21 342 8.0 17.7 0.00 1.40 0.79 50 1013.4
20260507222525 21 307 8.0 17.7 0.00 1.40 0.79 50 1013.4
20260507222432 21 329 8.0 17.7 0.00 1.40 0.79 50 1013.4
20260507222319 21 275 8.0 17.7 0.00 1.40 0.79 51 1013.3
20260507222226 21 302 9.7 17.7 0.00 1.40 0.79 51 1013.3
20260507222137 21 279 9.7 17.7 0.00 1.40 0.79 50 1013.3
20260507222046 21 248 9.7 17.7 0.00 1.40 0.79 52 1013.2
20260507221841 21 331 11.3 17.7 0.00 1.40 0.79 52 1013.3
20260507221727 21 309 11.3 17.7 0.00 1.40 0.79 51 1013.3
20260507221634 21 339 8.0 16.1 0.00 1.40 0.79 51 1013.3
20260507221525 21 329 8.0 16.1 0.00 1.40 0.79 51 1013.3
20260507221411 21 331 8.0 17.7 0.00 1.40 0.79 51 1013.2
20260507221320 22 329 6.4 17.7 0.00 1.40 0.79 51 1013.2
20260507221227 22 5 9.7 17.7 0.00 1.40 0.79 51 1013.2
20260507221113 22 331 9.7 17.7 0.00 1.40 0.79 50 1013.3
20260507221020 22 313 6.4 17.7 0.00 1.40 0.79 50 1013.3
20260507220931 22 334 4.8 17.7 0.00 1.40 0.79 49 1013.3
20260507220818 22 310 8.0 17.7 0.00 1.40 0.79 49 1013.4
20260507220725 22 331 9.7 17.7 0.00 1.40 0.79 49 1013.4
20260507220612 22 348 11.3 17.7 0.00 1.40 0.79 49 1013.4
20260507220548 22 322 9.7 16.1 0.00 1.40 0.79 49 1013.4
20260507220319 22 326 9.7 16.1 0.00 1.40 0.79 49 1013.4
20260507220227 22 338 8.0 16.1 0.00 1.40 0.79 50 1013.4
20260507220115 22 268 4.8 14.5 0.00 1.40 0.79 50 1013.5
20260507220021 22 325 4.8 17.7 0.00 1.40 0.79 50 1013.5
20260507215913 22 318 4.8 17.7 0.00 1.40 0.79 51 1013.3
20260507215821 22 325 6.4 17.7 0.00 1.40 0.79 52 1013.3
20260507215727 22 329 6.4 17.7 0.00 1.40 0.79 50 1013.3
20260507215615 22 26 6.4 17.7 0.00 1.40 0.79 50 1013.3
20260507215522 22 5 6.4 17.7 0.00 1.40 0.79 50 1013.3
20260507215430 22 343 8.0 17.7 0.00 1.40 0.79 50 1013.3
20260507215320 22 346 11.3 17.7 0.00 1.40 0.79 51 1013.3
20260507215228 22 339 9.7 17.7 0.00 1.40 0.79 52 1013.3
20260507215136 22 355 9.7 19.3 0.00 1.40 0.79 51 1013.3
20260507215107 22 338 8.0 19.3 0.00 1.40 0.79 51 1013.2
20260507214840 22 336 8.0 19.3 0.00 1.40 0.79 51 1013.4
20260507214724 22 294 9.7 19.3 0.00 1.40 0.79 50 1013.4
20260507214617 22 304 9.7 19.3 0.00 1.40 0.79 50 1013.4
20260507214523 22 284 9.7 19.3 0.00 1.40 0.79 50 1013.4
20260507214430 22 302 11.3 19.3 0.00 1.40 0.79 50 1013.3
20260507214318 22 303 9.7 19.3 0.00 2.08 0.79 50 1013.2
20260507214226 22 274 6.4 19.3 0.00 2.08 0.79 51 1013.2
20260507214116 22 323 6.4 19.3 0.00 2.08 0.79 51 1013.1
20260507214045 22 333 8.0 19.3 0.00 2.08 0.79 50 1013.1
20260507213911 22 316 8.0 19.3 0.00 2.08 0.79 51 1013.2
20260507213818 22 329 8.0 19.3 0.00 2.08 0.79 50 1013.2
20260507213745 22 323 8.0 19.3 0.00 2.08 0.79 50 1013.2
20260507213612 22 317 8.0 19.3 0.00 2.08 0.79 50 1013.2
20260507213546 22 319 8.0 19.3 0.00 2.08 0.79 52 1013.2
20260507213319 22 325 8.0 17.7 0.00 2.08 0.79 52 1013.2
20260507213227 22 331 8.0 17.7 0.00 2.08 0.79 52 1013.2
20260507213114 22 355 8.0 17.7 0.00 2.08 0.79 52 1013.3
20260507213023 22 355 11.3 17.7 0.00 2.08 0.79 51 1013.3
20260507212915 22 342 12.9 17.7 0.00 2.08 0.79 51 1013.3
20260507212822 22 360 11.3 16.1 0.00 2.08 0.79 50 1013.3
20260507212729 22 331 6.4 16.1 0.00 2.08 0.79 50 1013.3
20260507212617 22 294 6.4 17.7 0.00 2.08 0.79 49 1013.2
20260507212525 22 9 8.0 22.5 0.00 2.08 0.79 49 1013.2
20260507212417 22 76 9.7 22.5 0.00 2.08 0.79 50 1013.3
20260507212344 22 279 9.7 22.5 0.00 2.08 0.79 50 1013.3
20260507212251 22 329 11.3 22.5 0.00 2.08 0.79 50 1013.3
20260507212117 22 294 9.7 22.5 0.00 2.08 0.79 51 1013.3
20260507212047 22 307 11.3 22.5 0.00 2.08 0.79 51 1013.3
20260507211821 22 314 12.9 22.5 0.00 2.08 0.79 51 1013.3
20260507211712 22 320 9.7 22.5 0.00 2.08 0.79 51 1013.2
20260507211640 22 304 8.0 17.7 0.00 2.08 0.79 51 1013.1
20260507211527 22 319 8.0 17.7 0.00 2.08 0.79 51 1013.1
20260507211413 22 275 9.7 20.9 0.00 2.08 0.79 50 1013.3
20260507211321 22 309 9.7 20.9 0.00 2.08 0.79 51 1013.3
20260507211212 22 267 9.7 20.9 0.00 2.08 0.79 50 1013.3
20260507211118 22 296 11.3 20.9 0.00 2.08 0.79 51 1013.2
20260507211024 22 253 9.7 20.9 0.00 2.08 0.79 51 1013.2
20260507210912 22 243 9.7 20.9 0.00 2.08 0.79 51 1013.3
20260507210820 22 292 8.0 20.9 0.00 2.08 0.79 51 1013.2
20260507210727 22 346 9.7 20.9 0.00 2.08 0.79 52 1013.2
20260507210620 22 304 8.0 20.9 0.00 2.08 0.79 52 1013.2
20260507210548 22 338 8.0 20.9 0.00 2.08 0.79 51 1013.2
20260507210322 22 300 8.0 20.9 0.00 2.08 0.79 51 1013.2
20260507210229 22 311 11.3 20.9 0.00 2.08 0.79 50 1013.3
20260507210116 22 311 11.3 20.9 0.00 2.08 0.79 50 1013.2
20260507210027 22 309 9.7 20.9 0.00 2.08 0.79 52 1013.2
20260507205914 22 308 9.7 16.1 0.00 2.08 0.79 54 1013.2
20260507205822 21 5 9.7 16.1 0.00 2.08 0.79 54 1013.2
20260507205711 21 349 9.7 14.5 0.00 2.08 0.79 55 1013.2
20260507205619 21 355 9.7 14.5 0.00 2.08 0.79 54 1013.2
20260507205510 21 13 8.0 14.5 0.00 2.08 0.79 54 1013.4
20260507205417 21 16 6.4 14.5 0.00 2.08 0.79 54 1013.3
20260507205326 21 344 6.4 16.1 0.00 2.08 0.79 54 1013.3
20260507205234 21 319 6.4 16.1 0.00 2.08 0.79 56 1013.3
20260507205119 21 360 6.4 16.1 0.00 2.08 0.79 53 1013.4
20260507205054 21 360 6.4 16.1 0.00 2.08 0.79 53 1013.4
20260507204828 21 355 6.4 16.1 0.00 2.08 0.79 54 1013.4
20260507204715 21 310 8.0 16.1 0.00 2.08 0.79 54 1013.3
20260507204623 21 332 9.7 16.1 0.00 2.08 0.79 54 1013.3
20260507204511 21 338 9.7 16.1 0.00 2.08 0.79 54 1013.4
20260507204421 21 328 9.7 16.1 0.00 2.08 0.79 54 1013.4
20260507204328 21 311 9.7 16.1 0.00 3.07 0.79 54 1013.3
20260507204216 21 243 9.7 16.1 0.00 3.07 0.79 55 1013.2
20260507204124 21 294 8.0 16.1 0.00 3.07 0.79 55 1013.2
20260507204012 21 331 8.0 16.1 0.00 3.07 0.79 56 1013.3
20260507203919 21 297 6.4 16.1 0.00 3.07 0.79 57 1013.3
20260507203830 21 355 6.4 16.1 0.00 3.07 0.79 57 1013.3
20260507203738 21 336 6.4 16.1 0.00 3.07 0.79 56 1013.2
20260507203706 21 360 9.7 17.7 0.00 3.07 0.79 54 1013.3
20260507203614 21 355 9.7 19.3 0.00 3.07 0.79 54 1013.3
20260507203347 21 321 11.3 19.3 0.00 3.07 0.79 54 1013.3
20260507203234 21 319 11.3 20.9 0.00 3.07 0.79 54 1013.3
20260507203124 21 331 9.7 20.9 0.00 3.07 0.79 53 1013.3
20260507203011 21 288 11.3 20.9 0.00 3.07 0.79 52 1013.4
20260507202919 21 323 12.9 20.9 0.00 3.07 0.79 53 1013.4
20260507202825 21 325 14.5 20.9 0.00 3.07 0.79 53 1013.4
20260507202713 21 347 12.9 20.9 0.00 3.07 0.79 53 1013.4
20260507202624 21 335 14.5 20.9 0.00 3.07 0.79 54 1013.4
20260507202512 21 350 16.1 20.9 0.00 3.07 0.79 54 1013.4
20260507202420 21 335 16.1 20.9 0.00 3.07 0.79 54 1013.3
20260507202347 21 328 12.9 20.9 0.00 3.07 0.79 55 1013.3
20260507202213 21 355 8.0 16.1 0.00 3.07 0.79 54 1013.3
20260507202121 21 302 6.4 16.1 0.00 3.07 0.79 53 1013.3
20260507202056 21 312 6.4 19.3 0.00 3.07 0.79 53 1013.3
20260507201830 21 342 6.4 19.3 0.00 3.07 0.79 54 1013.4
20260507201718 21 319 8.0 19.3 0.00 3.07 0.79 55 1013.4
20260507201646 21 330 8.0 19.3 0.00 3.07 0.79 55 1013.4
20260507201551 21 298 9.7 19.3 0.00 3.07 0.79 55 1013.4
20260507201421 21 319 11.3 19.3 0.00 3.07 0.79 54 1013.3
20260507201328 21 288 12.9 19.3 0.00 3.07 0.79 55 1013.5
20260507201216 21 284 11.3 19.3 0.00 3.07 0.79 55 1013.4
20260507201123 21 277 8.0 17.7 0.00 3.07 0.79 57 1013.4
20260507201029 21 267 6.4 17.7 0.00 3.07 0.79 57 1013.4
20260507200916 21 350 6.4 17.7 0.00 3.07 0.79 55 1013.5
20260507200847 21 333 6.4 17.7 0.00 3.07 0.79 54 1013.5
20260507200713 21 332 11.3 17.7 0.00 3.07 0.79 54 1013.5
20260507200622 21 325 11.3 19.3 0.00 3.07 0.79 53 1013.5
20260507200552 21 339 11.3 19.3 0.00 3.07 0.79 54 1013.5
20260507200311 21 338 9.7 19.3 0.00 3.07 0.79 55 1013.4
20260507200219 21 350 9.7 19.3 0.00 3.07 0.79 55 1013.5
20260507200127 21 324 9.7 20.9 0.00 3.07 0.79 55 1013.5
20260507200013 21 29 12.9 20.9 0.00 3.07 0.79 55 1013.5
20260507195940 21 355 12.9 20.9 0.00 3.07 0.79 56 1013.4
20260507195828 21 324 14.5 20.9 0.00 3.07 0.79 57 1013.4
20260507195720 21 321 12.9 20.9 0.00 3.07 0.79 58 1013.3
20260507195628 21 21 11.3 20.9 0.00 3.07 0.79 59 1013.3
20260507195517 21 345 12.9 20.9 0.00 3.07 0.79 57 1013.3
20260507195425 21 338 12.9 20.9 0.00 3.07 0.79 58 1013.3
20260507195311 21 321 9.7 20.9 0.00 3.07 0.79 58 1013.3
20260507195219 21 292 6.4 17.7 0.00 3.07 0.79 58 1013.4
20260507195129 21 322 9.7 20.9 0.00 3.07 0.79 58 1013.4
20260507195100 21 344 11.3 20.9 0.00 3.07 0.79 58 1013.4
20260507194814 21 330 12.9 20.9 0.00 3.07 0.79 56 1013.4
20260507194722 21 340 12.9 20.9 0.00 3.07 0.79 54 1013.4
20260507194633 21 336 12.9 20.9 0.00 3.07 0.79 55 1013.4
20260507194519 21 302 12.9 20.9 0.00 3.07 0.79 57 1013.3
20260507194427 21 315 14.5 20.9 0.00 3.07 0.79 58 1013.3
20260507194333 21 337 12.9 20.9 0.00 3.30 0.79 57 1013.4
20260507194220 21 348 14.5 19.3 0.00 3.30 0.79 56 1013.4
20260507194128 21 351 12.9 19.3 0.00 3.30 0.79 56 1013.4
20260507194020 21 355 8.0 19.3 0.00 3.30 0.79 58 1013.4
20260507193928 21 333 8.0 22.5 0.00 3.30 0.79 58 1013.4
20260507193815 21 332 9.7 22.5 0.00 3.30 0.79 56 1013.4
20260507193724 21 320 9.7 22.5 0.00 3.30 0.79 58 1013.4
20260507193651 21 355 11.3 22.5 0.00 3.30 0.79 58 1013.5
20260507193624 21 345 12.9 22.5 0.00 3.30 0.79 55 1013.5
20260507193337 21 315 14.5 22.5 0.00 3.30 0.79 57 1013.4
20260507193224 21 317 12.9 22.5 0.00 3.30 0.79 59 1013.4
20260507193111 21 355 11.3 22.5 0.00 3.30 0.79 57 1013.4
20260507193019 21 348 14.5 22.5 0.00 3.30 0.79 57 1013.4
20260507192926 21 334 17.7 22.5 0.00 3.30 0.79 57 1013.4
20260507192818 21 335 14.5 22.5 0.00 3.30 0.79 55 1013.4
20260507192727 21 309 14.5 22.5 0.00 3.30 0.79 55 1013.4
20260507192615 21 311 14.5 22.5 0.00 3.30 0.79 55 1013.3
20260507192523 21 328 14.5 22.5 0.00 3.30 0.79 55 1013.3
20260507192450 21 330 11.3 19.3 0.00 3.30 0.79 56 1013.3
20260507192337 21 329 9.7 19.3 0.00 3.30 0.79 56 1013.2
20260507192226 21 325 8.0 19.3 0.00 3.30 0.79 56 1013.2
20260507192155 21 348 8.0 19.3 0.00 3.30 0.79 56 1013.3
20260507192125 21 355 9.7 19.3 0.00 3.30 0.79 57 1013.2
20260507191818 21 360 11.3 19.3 0.00 3.30 0.79 57 1013.4
20260507191725 21 321 11.3 19.3 0.00 3.30 0.79 57 1013.4
20260507191617 21 341 11.3 19.3 0.00 3.30 0.79 59 1013.2
20260507191525 21 332 12.9 19.3 0.00 3.30 0.79 57 1013.2
20260507191412 21 355 12.9 19.3 0.00 3.30 0.79 55 1013.3
20260507191340 21 321 14.5 19.3 0.00 3.30 0.79 56 1013.3
20260507191246 21 313 12.9 19.3 0.00 3.30 0.79 56 1013.3
20260507191111 21 334 11.3 19.3 0.00 3.30 0.79 57 1013.3
20260507191039 21 265 8.0 19.3 0.00 3.30 0.79 57 1013.3
20260507190928 21 319 8.0 19.3 0.00 3.30 0.79 57 1013.3
20260507190816 21 306 9.7 14.5 0.00 3.30 0.79 58 1013.3
20260507190744 21 16 9.7 14.5 0.00 3.30 0.79 59 1013.3
20260507190611 21 355 8.0 16.1 0.00 3.30 0.79 60 1013.2
20260507190546 21 23 8.0 16.1 0.00 3.30 0.79 60 1013.2
20260507190319 21 290 6.4 17.7 0.00 3.30 0.79 57 1013.3
20260507190227 21 351 4.8 17.7 0.00 3.30 0.79 58 1013.3
20260507190113 21 57 3.2 17.7 0.00 3.30 0.79 58 1013.4
20260507190021 21 346 4.8 17.7 0.00 3.30 0.79 58 1013.4
20260507185930 21 24 6.4 17.7 0.00 3.30 0.79 59 1013.3
20260507185823 21 339 9.7 17.7 0.00 3.30 0.79 59 1013.3
20260507185729 21 306 12.9 17.7 0.00 3.30 0.79 59 1013.3
20260507185618 21 355 11.3 17.7 0.00 3.30 0.79 59 1013.3
20260507185525 21 330 11.3 16.1 0.00 3.30 0.79 57 1013.3
20260507185411 21 360 9.7 16.1 0.00 3.30 0.79 57 1013.3
20260507185322 21 36 8.0 19.3 0.00 3.30 0.79 59 1013.3
20260507185229 21 46 4.8 19.3 0.00 3.30 0.79 59 1013.3
20260507185118 21 344 4.8 19.3 0.00 3.30 0.79 59 1013.4
20260507185047 21 342 4.8 19.3 0.00 3.30 0.79 58 1013.4
20260507184822 21 304 8.0 19.3 0.00 3.30 0.79 58 1013.4
20260507184713 21 321 9.7 19.3 0.00 3.30 0.79 58 1013.5
20260507184640 21 298 9.7 19.3 0.00 3.30 0.79 58 1013.4
20260507184547 21 327 11.3 22.5 0.00 3.30 0.79 57 1013.4
20260507184413 21 192 11.3 24.1 0.00 3.81 0.79 58 1013.4
20260507184341 21 322 11.3 27.4 0.00 3.81 0.79 57 1013.4
20260507184227 21 300 8.0 27.4 0.00 3.81 0.79 57 1013.4
20260507184119 21 273 8.0 27.4 0.00 3.81 0.79 57 1013.4
20260507184027 21 295 11.3 27.4 0.00 3.81 0.79 59 1013.4
20260507183913 21 339 14.5 27.4 0.00 3.81 0.79 59 1013.4
20260507183821 21 17 14.5 27.4 0.00 3.81 0.79 59 1013.4
20260507183730 21 338 16.1 27.4 0.00 3.81 0.79 59 1013.4
20260507183617 21 319 14.5 27.4 0.00 3.81 0.79 59 1013.3
20260507183551 21 329 12.9 27.4 0.00 3.81 0.79 59 1013.3
20260507183324 20 330 8.0 19.3 0.00 3.81 0.79 58 1013.3
20260507183210 20 57 9.7 19.3 0.00 3.81 0.79 59 1013.4
20260507183118 20 324 11.3 19.3 0.00 3.81 0.79 60 1013.3
20260507183030 20 325 9.7 19.3 0.00 3.81 0.79 60 1013.3
20260507182918 20 336 11.3 22.5 0.00 3.81 0.79 60 1013.2
20260507182825 20 325 9.7 22.5 0.00 3.81 0.79 61 1013.2
20260507182711 20 5 12.9 22.5 0.00 3.81 0.79 61 1013.4
20260507182639 20 344 11.3 22.5 0.00 3.81 0.79 61 1013.4
20260507182525 20 336 8.0 22.5 0.00 3.81 0.79 60 1013.4
20260507182417 20 308 8.0 22.5 0.00 3.81 0.79 61 1013.4
20260507182325 20 15 9.7 22.5 0.00 3.81 0.79 60 1013.4
20260507182212 20 17 11.3 22.5 0.00 3.81 0.79 60 1013.5
20260507182121 20 355 12.9 22.5 0.00 3.81 0.79 62 1013.5
20260507182055 20 20 14.5 22.5 0.00 3.81 0.79 61 1013.6
20260507181829 20 5 12.9 22.5 0.00 3.81 0.79 63 1013.7
20260507181716 20 20 12.9 22.5 0.00 3.81 0.79 62 1013.6
20260507181625 20 23 14.5 22.5 0.00 3.81 0.79 62 1013.6
20260507181512 20 346 12.9 22.5 0.00 3.81 0.79 61 1013.6
20260507181418 20 26 12.9 22.5 0.00 3.81 0.79 61 1013.6
20260507181311 20 296 9.7 22.5 0.00 3.81 0.79 62 1013.6
20260507181219 20 315 9.7 22.5 0.00 3.81 0.79 61 1013.6
20260507181127 20 316 11.3 22.5 0.00 3.81 0.79 59 1013.6
20260507181033 20 317 14.5 22.5 0.00 3.81 0.79 61 1013.8
20260507180919 20 319 12.9 22.5 0.00 3.81 0.79 60 1013.8
20260507180845 20 313 11.3 22.5 0.00 3.81 0.79 60 1013.8
20260507180714 20 311 12.9 22.5 0.00 3.81 0.79 61 1013.9
20260507180621 20 299 14.5 22.5 0.00 3.81 0.79 62 1013.9
20260507180552 20 304 12.9 22.5 0.00 3.81 0.79 62 1013.9
20260507180326 20 350 9.7 20.9 0.00 3.81 0.79 62 1014.0
20260507180218 20 344 8.0 19.3 0.00 3.81 0.79 63 1014.0
20260507180124 20 355 9.7 19.3 0.00 3.81 0.79 63 1014.0
20260507180011 20 355 11.3 19.3 0.00 3.81 0.79 61 1014.1
20260507175919 20 345 12.9 19.3 0.00 3.81 0.79 62 1014.1
20260507175827 20 314 11.3 19.3 0.00 3.81 0.79 62 1014.1
20260507175714 19 328 12.9 19.3 0.00 3.81 0.79 63 1014.1
20260507175625 19 11 11.3 20.9 0.00 3.81 0.79 63 1014.1
20260507175512 19 5 8.0 20.9 0.00 3.81 0.79 62 1014.1
20260507175439 19 39 8.0 20.9 0.00 3.81 0.79 63 1014.1
20260507175326 19 25 11.3 20.9 0.00 3.81 0.79 61 1014.1
20260507175232 19 355 9.7 20.9 0.00 3.81 0.79 62 1014.2
20260507175118 19 34 11.3 20.9 0.00 3.81 0.79 63 1014.2
20260507175053 19 16 11.3 20.9 0.00 3.81 0.79 61 1014.2
20260507174827 19 5 12.9 20.9 0.00 3.81 0.79 60 1014.2
20260507174715 19 321 11.3 24.1 0.00 3.81 0.79 60 1014.2
20260507174622 19 319 9.7 24.1 0.00 3.81 0.79 60 1014.2
20260507174514 19 340 11.3 24.1 0.00 3.81 0.79 62 1014.2
20260507174441 19 344 12.9 24.1 0.00 3.81 0.79 62 1014.3
20260507174328 19 331 9.7 24.1 0.00 5.05 0.79 62 1014.3
20260507174216 19 348 9.7 24.1 0.00 5.05 0.79 60 1014.3
20260507174124 19 317 11.3 24.1 0.00 5.05 0.79 61 1014.3
20260507174030 20 323 12.9 24.1 0.00 5.05 0.79 61 1014.4
20260507173922 20 329 14.5 24.1 0.00 5.05 0.79 62 1014.4
20260507173830 19 360 11.3 24.1 0.00 5.05 0.79 62 1014.4
20260507173718 19 355 9.7 19.3 0.00 5.05 0.79 62 1014.4
20260507173625 19 360 11.3 19.3 0.00 5.05 0.79 63 1014.4
20260507173555 19 355 11.3 19.3 0.00 5.05 0.79 63 1014.4
20260507173312 19 360 11.3 19.3 0.00 5.05 0.79 61 1014.4
20260507173219 19 312 11.3 19.3 0.00 5.05 0.79 62 1014.4
20260507173127 19 306 9.7 19.3 0.00 5.05 0.79 63 1014.4
20260507173015 19 360 8.0 19.3 0.00 5.05 0.79 61 1014.4
20260507172923 19 9 8.0 19.3 0.00 5.05 0.79 61 1014.4
20260507172814 19 329 8.0 19.3 0.00 5.05 0.79 60 1014.4
20260507172742 19 360 8.0 19.3 0.00 5.05 0.79 59 1014.4
20260507172629 19 305 8.0 19.3 0.00 5.05 0.79 59 1014.5
20260507172515 19 325 9.7 19.3 0.00 5.05 0.79 63 1014.6
20260507172443 19 340 11.3 19.3 0.00 5.05 0.79 63 1014.6
20260507172350 19 23 11.3 19.3 0.00 5.05 0.79 63 1014.6
20260507172216 19 355 9.7 17.7 0.00 5.05 0.79 62 1014.5
20260507172127 19 336 9.7 17.7 0.00 5.05 0.79 62 1014.5
20260507172057 19 337 11.3 17.7 0.00 5.05 0.79 62 1014.6
20260507171830 19 15 11.3 16.1 0.00 5.05 0.79 63 1014.4
20260507171717 19 342 12.9 16.1 0.00 5.05 0.79 64 1014.5
20260507171628 19 351 9.7 17.7 0.00 5.05 0.79 64 1014.5
20260507171515 19 19 9.7 17.7 0.00 5.05 0.79 63 1014.5
20260507171443 19 17 9.7 17.7 0.00 5.05 0.79 63 1014.5
20260507171329 19 349 9.7 17.7 0.00 5.05 0.79 63 1014.5
20260507171217 19 5 8.0 17.7 0.00 5.05 0.79 62 1014.5
20260507171125 18 21 8.0 17.7 0.00 5.05 0.79 62 1014.5
20260507171018 18 319 9.7 17.7 0.00 5.05 0.79 64 1014.6
20260507170924 18 40 11.3 19.3 0.00 5.05 0.79 64 1014.6
20260507170811 18 324 11.3 19.3 0.00 5.05 0.79 63 1014.5
20260507170718 18 18 9.7 19.3 0.00 5.05 0.79 63 1014.5
20260507170646 18 33 9.7 22.5 0.00 5.05 0.79 64 1014.5
20260507170559 18 23 11.3 22.5 0.00 5.05 0.79 63 1014.5
20260507170313 18 332 11.3 22.5 0.00 5.05 0.79 66 1014.4
20260507170220 18 340 11.3 22.5 0.00 5.05 0.79 66 1014.4
20260507170126 18 329 11.3 22.5 0.00 5.05 0.79 66 1014.4
20260507170013 18 5 14.5 25.7 0.00 5.05 0.79 64 1014.4
20260507165919 18 24 14.5 25.7 0.00 5.05 0.79 61 1014.5
20260507165811 18 338 14.5 25.7 0.00 5.05 0.79 61 1014.5
20260507165718 18 344 14.5 25.7 0.00 5.05 0.79 62 1014.6
20260507165627 18 345 16.1 25.7 0.00 5.05 0.79 64 1014.6
20260507165515 18 325 14.5 25.7 0.00 5.05 0.79 64 1014.7
20260507165421 18 341 16.1 25.7 0.00 5.05 0.79 65 1014.7
20260507165348 18 323 16.1 25.7 0.00 5.05 0.79 64 1014.7
20260507165218 18 360 16.1 25.7 0.00 5.05 0.79 64 1014.6
20260507165125 18 336 14.5 24.1 0.00 5.05 0.79 64 1014.6
20260507165055 18 323 14.5 20.9 0.00 5.05 0.79 64 1014.6
20260507164848 18 9 12.9 20.9 0.00 5.05 0.79 64 1014.6
20260507164715 18 342 9.7 20.9 0.00 5.05 0.79 66 1014.6
20260507164626 18 336 6.4 20.9 0.00 5.05 0.79 65 1014.6
20260507164535 18 25 8.0 20.9 0.00 5.05 0.79 65 1014.6
20260507164420 18 5 12.9 22.5 0.00 5.05 0.79 63 1014.7
20260507164326 18 5 14.5 22.5 0.00 5.05 0.79 65 1014.7
20260507164234 18 355 12.9 22.5 0.00 5.05 0.79 66 1014.8
20260507164121 18 5 11.3 24.1 0.00 5.05 0.79 65 1014.8
20260507164011 18 346 11.3 25.7 0.00 5.05 0.79 64 1014.7
20260507163919 18 355 12.9 25.7 0.00 5.05 0.79 65 1014.7
20260507163846 18 325 14.5 25.7 0.00 5.05 0.79 65 1014.7
20260507163733 18 5 14.5 25.7 0.00 5.05 0.79 65 1014.7
20260507163641 18 38 14.5 25.7 0.00 5.05 0.79 65 1014.8
20260507163551 18 17 16.1 25.7 0.00 5.05 0.79 65 1014.8
20260507163350 18 331 17.7 25.7 0.00 5.05 0.79 63 1014.8
20260507163218 18 306 16.1 25.7 0.00 5.05 0.79 66 1014.8
20260507163124 18 320 12.9 20.9 0.00 5.05 0.79 67 1014.8
20260507163012 18 5 9.7 24.1 0.00 5.05 0.79 66 1014.8
20260507162940 18 22 9.7 24.1 0.00 5.05 0.79 67 1014.8
20260507162827 18 27 9.7 24.1 0.00 5.05 0.79 66 1014.8
20260507162719 18 31 11.3 24.1 0.00 5.05 0.79 67 1014.9
20260507162627 18 12 11.3 24.1 0.00 5.05 0.79 67 1014.9
20260507162515 17 355 16.1 24.1 0.00 5.05 0.79 67 1014.8
20260507162422 17 329 14.5 24.1 0.00 5.05 0.79 66 1014.8
20260507162329 17 360 14.5 24.1 0.00 5.05 0.79 65 1014.8
20260507162220 17 351 14.5 24.1 0.00 5.05 0.79 65 1014.8
20260507162147 17 351 14.5 24.1 0.00 5.05 0.79 65 1014.8
20260507162118 17 351 14.5 24.1 0.00 5.05 0.79 65 1014.7
20260507161810 17 344 14.5 24.1 0.00 5.05 0.79 66 1014.5
20260507161738 17 14 14.5 24.1 0.00 5.05 0.79 66 1014.5
20260507161625 17 22 16.1 24.1 0.00 5.05 0.79 65 1014.5
20260507161536 17 70 14.5 24.1 0.00 5.05 0.79 67 1014.5
20260507161422 17 5 14.5 24.1 0.00 5.05 0.79 67 1014.5
20260507161330 17 33 16.1 24.1 0.00 5.05 0.79 67 1014.6
20260507161218 17 32 16.1 24.1 0.00 5.05 0.79 68 1014.6
20260507161126 17 360 12.9 24.1 0.00 5.05 0.79 68 1014.6
20260507161018 17 335 6.4 17.7 0.00 5.05 0.79 69 1014.5
20260507160927 17 13 8.0 17.7 0.00 5.05 0.79 69 1014.5
20260507160815 17 5 9.7 22.5 0.00 5.05 0.79 68 1014.5
20260507160723 17 24 11.3 22.5 0.00 5.05 0.79 68 1014.5
20260507160630 17 30 12.9 22.5 0.00 5.05 0.79 69 1014.5
20260507160545 17 27 11.3 22.5 0.00 5.05 0.79 68 1014.6
20260507160319 17 34 12.9 22.5 0.00 5.05 0.79 69 1014.5
20260507160226 17 360 14.5 22.5 0.00 5.05 0.79 69 1014.5
20260507160113 17 21 12.9 24.1 0.00 5.05 0.79 70 1014.7
20260507160021 17 336 12.9 24.1 0.00 5.05 0.79 70 1014.7
20260507155927 17 11 14.5 24.1 0.00 5.05 0.79 69 1014.7
20260507155818 17 355 16.1 24.1 0.00 5.05 0.79 70 1014.6
20260507155726 17 5 12.9 25.7 0.00 5.05 0.79 71 1014.6
20260507155613 17 325 11.3 25.7 0.00 5.05 0.79 70 1014.6
20260507155521 17 16 12.9 25.7 0.00 5.05 0.79 70 1014.6
20260507155449 17 11 14.5 25.7 0.00 5.05 0.79 70 1014.5
20260507155319 16 32 14.5 25.7 0.00 5.05 0.79 70 1014.5
20260507155227 16 40 14.5 25.7 0.00 5.05 0.79 70 1014.5
20260507155154 16 19 14.5 25.7 0.00 5.05 0.79 70 1014.4
20260507155125 16 69 16.1 25.7 0.00 5.05 0.79 71 1014.5
20260507154818 16 20 16.1 24.1 0.00 5.05 0.79 71 1014.4
20260507154745 16 5 16.1 24.1 0.00 5.05 0.79 72 1014.4
20260507154616 16 31 16.1 25.7 0.00 5.05 0.79 73 1014.4
20260507154544 16 5 14.5 25.7 0.00 5.05 0.79 74 1014.4
20260507154430 16 18 14.5 25.7 0.00 5.05 0.79 72 1014.5
20260507154318 16 11 16.1 25.7 0.00 5.05 0.79 71 1014.4
20260507154225 16 360 16.1 25.7 0.00 5.05 0.79 71 1014.4
20260507154117 16 360 17.7 25.7 0.00 5.05 0.79 72 1014.5
20260507154025 16 344 19.3 25.7 0.00 5.05 0.79 71 1014.5
20260507153912 16 26 17.7 25.7 0.00 5.05 0.79 72 1014.5
20260507153821 16 349 14.5 25.7 0.00 5.05 0.79 73 1014.5
20260507153729 16 349 14.5 25.7 0.00 5.05 0.79 74 1014.5
20260507153615 16 351 12.9 22.5 0.00 5.05 0.79 74 1014.4
20260507153550 16 5 12.9 24.1 0.00 5.05 0.79 74 1014.4
20260507153323 16 333 14.5 24.1 0.00 5.05 0.79 75 1014.5
20260507153230 16 360 14.5 24.1 0.00 5.05 0.79 75 1014.4
20260507153118 16 355 12.9 24.1 0.00 5.05 0.79 74 1014.5
20260507153029 16 5 12.9 24.1 0.00 5.05 0.79 74 1014.5
20260507152918 16 5 12.9 24.1 0.00 5.05 0.79 74 1014.5
20260507152826 16 355 12.9 24.1 0.00 5.05 0.79 74 1014.5
20260507152713 16 17 14.5 24.1 0.00 5.05 0.79 74 1014.4
20260507152621 16 360 12.9 24.1 0.00 5.05 0.79 74 1014.4
20260507152513 16 20 12.9 20.9 0.00 5.05 0.79 74 1014.5
20260507152420 16 13 14.5 20.9 0.00 5.05 0.79 75 1014.5
20260507152349 16 360 12.9 19.3 0.00 5.05 0.79 75 1014.5
20260507152216 15 25 11.3 19.3 0.00 5.05 0.79 75 1014.5
20260507152122 15 18 12.9 19.3 0.00 5.05 0.79 77 1014.5
20260507152058 15 30 12.9 17.7 0.00 5.05 0.79 77 1014.5
20260507151811 15 38 11.3 20.9 0.00 5.05 0.79 77 1014.5
20260507151718 15 5 9.7 20.9 0.00 5.05 0.79 78 1014.4
20260507151625 15 347 9.7 20.9 0.00 5.05 0.79 77 1014.4
20260507151513 15 35 8.0 20.9 0.00 5.05 0.79 78 1014.5
20260507151419 15 355 9.7 20.9 0.00 5.05 0.79 77 1014.5
20260507151329 15 331 9.7 20.9 0.00 5.05 0.79 76 1014.5
20260507151217 15 23 11.3 20.9 0.00 5.05 0.79 77 1014.5
20260507151145 15 355 12.9 20.9 0.00 5.05 0.79 77 1014.5
20260507151031 15 5 16.1 20.9 0.00 5.05 0.79 77 1014.4
20260507150919 15 344 14.5 20.9 0.00 5.05 0.79 77 1014.4
20260507150827 15 5 12.9 19.3 0.00 5.05 0.79 78 1014.4
20260507150719 15 355 11.3 19.3 0.00 5.05 0.79 78 1014.4
20260507150646 15 17 9.7 19.3 0.00 5.05 0.79 78 1014.4
20260507150617 15 346 11.3 19.3 0.00 5.05 0.79 78 1014.4
20260507150310 15 339 11.3 19.3 0.00 5.05 0.79 78 1014.2
20260507150218 15 323 11.3 19.3 0.00 5.05 0.79 79 1014.3
20260507150130 15 350 12.9 20.9 0.00 5.05 0.79 79 1014.3
20260507150017 15 336 9.7 20.9 0.00 5.05 0.79 81 1014.3
20260507145924 15 13 9.7 20.9 0.00 5.05 0.79 81 1014.3
20260507145812 15 342 9.7 20.9 0.00 5.05 0.79 81 1014.3
20260507145721 15 360 8.0 20.9 0.00 5.05 0.79 82 1014.3
20260507145614 14 355 8.0 20.9 0.00 5.05 0.79 82 1014.3
20260507145521 14 22 11.3 20.9 0.00 5.05 0.79 81 1014.3
20260507145428 14 13 12.9 20.9 0.00 5.05 0.79 81 1014.3
20260507145317 14 355 12.9 20.9 0.00 5.05 0.79 82 1014.2
20260507145225 14 360 11.3 20.9 0.00 5.05 0.79 82 1014.2
20260507145116 14 32 9.7 19.3 0.00 5.05 0.79 82 1014.3
20260507145048 14 360 11.3 19.3 0.00 5.05 0.79 82 1014.3
20260507144823 14 355 12.9 19.3 0.00 5.05 0.79 82 1014.3
20260507144730 14 5 12.9 22.5 0.00 5.05 0.79 83 1014.3
20260507144617 14 338 12.9 22.5 0.00 5.05 0.79 84 1014.4
20260507144549 14 355 12.9 22.5 0.00 5.05 0.79 83 1014.4
20260507144413 14 11 12.9 22.5 0.00 5.05 0.79 83 1014.4
20260507144321 13 323 11.3 22.5 0.00 5.05 0.79 83 1014.4
20260507144228 13 9 14.5 22.5 0.00 5.05 0.79 83 1014.5
20260507144135 13 334 14.5 22.5 0.00 5.05 0.79 83 1014.4
20260507144021 13 5 14.5 22.5 0.00 5.05 0.79 83 1014.4
20260507143912 13 355 14.5 22.5 0.00 5.05 0.79 84 1014.5
20260507143840 13 323 11.3 20.9 0.00 5.05 0.79 84 1014.5
20260507143728 13 5 9.7 17.7 0.00 5.05 0.79 85 1014.5
20260507143614 13 355 9.7 22.5 0.00 5.05 0.79 85 1014.4
20260507143545 13 340 9.7 22.5 0.00 5.05 0.79 85 1014.4
20260507143323 13 355 11.3 22.5 0.00 5.05 0.79 85 1014.4
20260507143230 13 340 11.3 22.5 0.00 5.05 0.79 85 1014.3
20260507143115 13 317 9.7 22.5 0.00 5.05 0.79 85 1014.3
20260507143023 13 339 9.7 22.5 0.00 5.05 0.79 85 1014.3
20260507142930 13 360 11.3 24.1 0.00 5.05 0.79 85 1014.4
20260507142819 13 360 9.7 24.1 0.00 5.05 0.79 85 1014.4
20260507142711 13 345 8.0 24.1 0.00 5.05 0.79 85 1014.3
20260507142619 13 355 9.7 24.1 0.00 5.05 0.79 85 1014.2
20260507142546 13 12 11.3 24.1 0.00 5.05 0.79 85 1014.2
20260507142413 13 348 14.5 24.1 0.00 5.05 0.79 85 1014.3
20260507142321 13 308 14.5 24.1 0.00 5.05 0.79 85 1014.3
20260507142213 13 348 16.1 24.1 0.00 5.05 0.79 85 1014.3
20260507142141 13 5 16.1 24.1 0.00 5.05 0.79 85 1014.2
20260507142049 13 360 16.1 24.1 0.00 5.05 0.79 85 1014.2
20260507141823 13 346 16.1 24.1 0.00 5.05 0.79 85 1014.2
20260507141730 13 360 16.1 24.1 0.00 5.05 0.79 86 1014.1
20260507141623 13 355 16.1 24.1 0.00 5.05 0.79 86 1014.2
20260507141529 13 53 14.5 20.9 0.00 5.05 0.79 86 1014.1
20260507141417 13 5 11.3 20.9 0.00 5.05 0.79 86 1014.1
20260507141343 13 15 11.3 20.9 0.00 5.05 0.79 86 1014.1
20260507141230 13 24 9.7 22.5 0.00 5.05 0.79 86 1014.1
20260507141138 13 16 9.7 22.5 0.00 5.05 0.79 87 1014.1
20260507141025 13 35 11.3 22.5 0.00 5.05 0.79 86 1014.1
20260507140916 13 360 12.9 22.5 0.00 5.05 0.79 86 1014.1
20260507140823 13 319 12.9 22.5 0.00 5.05 0.79 86 1014.1
20260507140751 13 338 12.9 22.5 0.00 5.05 0.79 86 1014.0
20260507140638 13 325 12.9 22.5 0.00 5.05 0.79 87 1014.0
20260507140609 13 16 17.7 22.5 0.00 5.05 0.79 86 1014.0
20260507140325 13 334 16.1 22.5 0.00 5.05 0.79 87 1014.0
20260507140214 13 342 12.9 22.5 0.00 5.05 0.79 87 1013.9
20260507140121 13 338 12.9 22.5 0.00 5.05 0.79 87 1013.9
20260507140029 13 330 12.9 22.5 0.00 5.05 0.79 87 1013.9
20260507135918 13 329 12.9 22.5 0.00 5.05 0.79 87 1013.9
20260507135830 13 341 12.9 22.5 0.00 5.05 0.79 87 1013.9
20260507135737 13 332 14.5 22.5 0.00 5.05 0.79 87 1013.8
20260507135623 13 333 16.1 22.5 0.00 5.05 0.79 87 1013.8
20260507135511 13 11 14.5 22.5 0.00 5.05 0.79 88 1013.8
20260507135418 13 17 12.9 19.3 0.00 5.05 0.79 88 1013.8
20260507135324 13 351 12.9 19.3 0.00 5.05 0.79 88 1013.8
20260507135216 13 346 9.7 19.3 0.00 5.05 0.79 88 1013.8
20260507135121 13 5 8.0 19.3 0.00 5.05 0.79 88 1013.8
20260507135052 13 17 9.7 19.3 0.00 5.05 0.79 88 1013.8
20260507134846 13 9 11.3 19.3 0.00 5.05 0.79 88 1013.8
20260507134712 13 337 9.7 16.1 0.00 5.05 0.79 88 1013.8
20260507134624 13 331 9.7 16.1 0.00 5.05 0.79 88 1013.8
20260507134510 13 5 9.7 16.1 0.00 5.05 0.79 89 1013.8
20260507134419 13 351 11.3 17.7 0.00 6.65 0.79 89 1013.8
20260507134328 13 355 8.0 17.7 0.00 6.65 0.79 89 1013.8
20260507134215 13 17 8.0 19.3 0.00 6.65 0.79 89 1013.8
20260507134127 12 318 9.7 19.3 0.00 6.65 0.79 89 1013.8
20260507134015 12 5 11.3 22.5 0.00 6.65 0.79 89 1013.8
20260507133920 12 346 11.3 22.5 0.00 6.65 0.79 89 1013.8
20260507133847 12 16 11.3 22.5 0.00 6.65 0.79 89 1013.7
20260507133712 12 333 11.3 22.5 0.00 6.65 0.79 89 1013.8
20260507133640 12 323 9.7 22.5 0.00 6.65 0.79 89 1013.8
20260507133614 12 336 11.3 22.5 0.00 6.65 0.79 89 1013.7
20260507133327 12 355 12.9 22.5 0.00 6.65 0.79 89 1013.7
20260507133215 12 334 11.3 22.5 0.00 6.65 0.79 89 1013.6
20260507133122 12 313 9.7 22.5 0.00 6.65 0.79 89 1013.6
20260507133049 12 347 9.7 19.3 0.00 6.65 0.79 89 1013.5
20260507132921 12 24 11.3 19.3 0.00 6.65 0.79 90 1013.5
20260507132828 12 355 12.9 19.3 0.00 6.65 0.79 90 1013.5
20260507132736 12 344 14.5 19.3 0.00 6.65 0.79 90 1013.5
20260507132622 12 306 12.9 19.3 0.00 6.65 0.79 90 1013.5
20260507132528 12 349 11.3 19.3 0.00 6.65 0.79 90 1013.4
20260507132415 12 355 12.9 19.3 0.00 6.65 0.79 90 1013.4
20260507132343 12 347 14.5 19.3 0.00 6.65 0.79 90 1013.4
20260507132212 12 5 12.9 19.3 0.00 6.65 0.79 91 1013.4
20260507132140 12 12 12.9 19.3 0.00 6.65 0.79 91 1013.4
20260507132111 12 355 11.3 19.3 0.00 6.65 0.79 91 1013.3
20260507131845 12 343 9.7 17.7 0.00 6.65 0.79 91 1013.3
20260507131731 12 348 9.7 17.7 0.00 6.65 0.79 91 1013.3
20260507131623 12 360 11.3 17.7 0.00 6.65 0.79 91 1013.3
20260507131550 12 325 12.9 17.7 0.00 6.65 0.79 91 1013.3
20260507131437 12 324 12.9 17.7 0.00 6.65 0.79 92 1013.3
20260507131323 12 348 11.3 17.7 0.00 6.65 0.79 92 1013.3
20260507131228 12 342 11.3 17.7 0.00 6.65 0.79 92 1013.3
20260507131116 12 355 11.3 17.7 0.00 6.65 0.79 92 1013.3
20260507131024 12 342 12.9 17.7 0.00 6.65 0.79 92 1013.3
20260507130935 12 349 12.9 17.7 0.00 6.65 0.79 92 1013.3
20260507130822 12 340 11.3 17.7 0.00 6.65 0.79 92 1013.3
20260507130750 12 360 9.7 16.1 0.00 6.65 0.79 92 1013.3
20260507130637 12 355 8.0 14.5 0.00 6.65 0.79 93 1013.3
20260507130607 12 355 8.0 14.5 0.00 6.65 0.79 93 1013.3
20260507130324 12 335 8.0 14.5 0.00 6.65 0.79 93 1013.3
20260507130232 12 19 9.7 14.5 0.00 6.65 0.79 93 1013.3
20260507130118 12 5 9.7 16.1 0.00 6.65 0.79 93 1013.2
20260507130025 12 5 9.7 16.1 0.00 6.65 0.79 93 1013.2
20260507125913 12 9 9.7 16.1 0.00 6.65 0.79 93 1013.1
20260507125821 12 26 9.7 16.1 0.00 6.65 0.79 93 1013.1
20260507125712 12 360 9.7 16.1 0.00 6.65 0.79 93 1013.3
20260507125620 12 23 8.0 16.1 0.00 6.65 0.79 93 1013.3
20260507125528 12 355 6.4 16.1 0.00 6.65 0.79 93 1013.3
20260507125415 12 346 9.7 16.1 0.00 6.65 0.79 93 1013.3
20260507125322 12 332 9.7 16.1 0.00 6.65 0.79 94 1013.3
20260507125213 12 325 9.7 14.5 0.00 6.65 0.79 93 1013.3
20260507125140 12 355 9.7 14.5 0.00 6.65 0.79 93 1013.3
20260507125110 12 355 9.7 14.5 0.00 6.65 0.79 93 1013.2
20260507124824 12 14 8.0 14.5 0.00 6.65 0.79 94 1013.3
20260507124751 12 35 8.0 14.5 0.00 6.65 0.79 94 1013.3
20260507124617 12 355 9.7 16.1 0.00 6.65 0.79 94 1013.2
20260507124548 12 9 9.7 16.1 0.00 6.65 0.79 94 1013.2
20260507124416 12 5 9.7 16.1 0.00 6.65 0.79 94 1013.2
20260507124323 12 355 8.0 16.1 0.00 6.65 0.79 94 1013.2
20260507124230 12 5 8.0 16.1 0.00 6.65 0.79 94 1013.3
20260507124137 12 5 8.0 16.1 0.00 6.65 0.79 94 1013.3
20260507124023 12 5 9.7 16.1 0.00 6.65 0.79 94 1013.3
20260507123914 12 344 9.7 16.1 0.00 6.65 0.79 95 1013.2
20260507123842 12 332 9.7 16.1 0.00 6.65 0.79 95 1013.2
20260507123729 12 35 8.0 16.1 0.00 6.65 0.79 95 1013.2
20260507123618 12 347 9.7 17.7 0.00 6.65 0.79 95 1013.2
20260507123547 12 348 9.7 17.7 0.00 6.65 0.79 95 1013.2
20260507123325 12 5 11.3 17.7 0.00 6.65 0.79 95 1013.1
20260507123211 12 355 9.7 17.7 0.00 6.65 0.79 95 1013.1
20260507123119 12 348 9.7 20.9 0.00 6.65 0.79 95 1013.1
20260507123026 12 340 8.0 20.9 0.00 6.65 0.79 95 1013.1
20260507122933 12 347 11.3 20.9 0.00 6.65 0.79 95 1013.0
20260507122819 12 360 11.3 20.9 0.00 6.65 0.79 95 1013.0
20260507122711 12 18 11.3 20.9 0.00 6.65 0.79 95 1013.0
20260507122618 12 355 11.3 20.9 0.00 6.65 0.79 95 1013.0
20260507122526 12 26 9.7 20.9 0.00 6.65 0.79 95 1013.0
20260507122412 12 348 12.9 20.9 0.00 6.65 0.79 95 1013.0
20260507122340 12 14 12.9 20.9 0.00 6.65 0.79 95 1013.0
20260507122210 12 355 11.3 20.9 0.00 6.65 0.79 95 1012.9
20260507122118 12 355 8.0 17.7 0.00 6.65 0.79 95 1012.9
20260507122050 12 360 8.0 16.1 0.00 6.65 0.79 95 1012.9
20260507121824 12 355 9.7 16.1 0.00 6.65 0.79 95 1013.0
20260507121711 12 349 9.7 16.1 0.00 6.65 0.79 95 1013.0
20260507121643 12 9 9.7 16.1 0.00 6.65 0.79 95 1013.0
20260507121549 12 345 9.7 17.7 0.00 6.65 0.79 95 1013.0
20260507121435 12 349 9.7 17.7 0.00 6.65 0.79 96 1013.1
20260507121342 12 69 9.7 17.7 0.00 6.65 0.79 96 1013.1
20260507121229 12 341 8.0 17.7 0.00 6.65 0.79 96 1013.1
20260507121116 12 344 6.4 17.7 0.00 6.65 0.79 96 1013.0
20260507121024 12 355 8.0 17.7 0.00 6.65 0.79 96 1013.0
20260507120915 12 14 8.0 17.7 0.00 6.65 0.79 96 1013.1
20260507120823 12 329 9.7 17.7 0.00 6.65 0.79 96 1013.1
20260507120711 12 327 8.0 17.7 0.00 6.65 0.79 96 1013.0
20260507120618 12 15 8.0 16.1 0.00 6.65 0.79 96 1013.0
20260507120552 12 355 8.0 17.7 0.00 6.65 0.79 96 1013.0
20260507120327 12 5 9.7 17.7 0.00 6.65 0.79 96 1012.8
20260507120215 12 34 6.4 17.7 0.00 6.65 0.79 96 1012.7
20260507120122 12 355 6.4 17.7 0.00 6.65 0.79 96 1012.7
20260507120030 12 5 8.0 17.7 0.00 6.65 0.79 96 1012.6
20260507115918 12 360 11.3 17.7 0.00 6.65 0.79 96 1012.6
20260507115830 12 355 12.9 17.7 0.00 6.65 0.79 96 1012.6
20260507115717 12 21 11.3 17.7 0.00 6.65 0.79 96 1012.7
20260507115624 12 345 9.7 17.7 0.00 6.65 0.79 96 1012.7
20260507115511 12 355 8.0 17.7 0.00 6.65 0.79 96 1012.6
20260507115420 12 344 8.0 17.7 0.00 6.65 0.79 96 1012.6
20260507115311 12 360 9.7 17.7 0.00 6.65 0.79 96 1012.5
20260507115219 12 350 11.3 17.7 0.00 6.65 0.79 96 1012.6
20260507115126 12 344 11.3 17.7 0.00 6.65 0.79 96 1012.6
20260507115054 12 321 9.7 17.7 0.00 6.65 0.79 96 1012.6
20260507114812 12 318 8.0 17.7 0.00 6.65 0.79 96 1012.5
20260507114720 12 355 9.7 17.7 0.00 6.65 0.79 96 1012.5
20260507114627 12 338 11.3 17.7 0.00 6.65 0.79 96 1012.5
20260507114535 12 344 9.7 17.7 0.00 6.65 0.79 96 1012.6
20260507114421 12 355 6.4 17.7 0.00 6.65 0.79 96 1012.6
20260507114327 12 18 6.4 17.7 0.00 6.65 0.79 96 1012.5
20260507114219 12 341 9.7 17.7 0.00 6.65 0.79 96 1012.3
20260507114125 12 334 11.3 17.7 0.00 6.65 0.79 96 1012.3
20260507114012 12 336 12.9 17.7 0.00 6.65 0.79 96 1012.3
20260507113920 12 337 9.7 14.5 0.00 6.65 0.79 96 1012.3
20260507113827 12 5 9.7 14.5 0.00 6.65 0.79 96 1012.4
20260507113714 12 346 9.7 14.5 0.00 6.65 0.79 96 1012.5
20260507113626 12 343 8.0 14.5 0.00 6.65 0.79 96 1012.5
20260507113558 12 9 8.0 14.5 0.00 6.65 0.79 96 1012.4
20260507113312 12 342 8.0 14.5 0.00 6.65 0.79 96 1012.5
20260507113221 12 344 9.7 14.5 0.00 6.65 0.79 96 1012.5
20260507113132 12 16 9.7 14.5 0.00 6.65 0.79 96 1012.4
20260507113019 12 341 8.0 14.5 0.00 6.65 0.79 96 1012.4
20260507112924 12 360 8.0 14.5 0.00 6.65 0.79 96 1012.4
20260507112812 12 345 8.0 14.5 0.00 6.65 0.79 96 1012.4
20260507112740 12 338 6.4 14.5 0.00 6.65 0.79 96 1012.4
20260507112626 12 13 6.4 14.5 0.00 6.65 0.79 96 1012.4
20260507112533 11 338 6.4 14.5 0.00 6.65 0.79 96 1012.6
20260507112423 12 360 8.0 17.7 0.00 6.65 0.79 96 1012.6
20260507112311 12 348 8.0 20.9 0.00 6.65 0.79 96 1012.6
20260507112220 12 5 8.0 20.9 0.00 6.65 0.79 96 1012.6
20260507112128 12 341 8.0 20.9 0.00 6.65 0.79 96 1012.6
20260507112058 12 322 8.0 20.9 0.00 6.65 0.79 96 1012.5
20260507111817 11 360 8.0 20.9 0.00 6.65 0.79 96 1012.1
20260507111745 11 306 9.7 20.9 0.00 6.65 0.79 96 1012.1
20260507111611 12 341 12.9 20.9 0.00 6.65 0.79 96 1011.9
20260507111518 11 355 11.3 20.9 0.00 6.65 0.79 96 1012.0
20260507111446 11 360 8.0 16.1 0.00 6.65 0.79 96 1012.0
20260507111332 12 9 9.7 16.1 0.00 6.65 0.79 96 1012.1
20260507111222 12 348 11.3 16.1 0.00 6.65 0.79 96 1012.1
20260507111129 12 355 11.3 16.1 0.00 6.65 0.79 96 1012.0
20260507111016 12 12 6.4 16.1 0.00 6.65 0.79 96 1012.0
20260507110924 12 355 6.4 16.1 0.00 6.65 0.79 96 1012.0
20260507110811 12 11 9.7 16.1 0.00 6.65 0.79 96 1011.9
20260507110739 12 343 8.0 16.1 0.00 6.65 0.79 96 1011.9
20260507110629 12 360 8.0 16.1 0.00 6.65 0.79 96 1011.9
20260507110600 12 355 8.0 16.1 0.00 6.65 0.79 96 1011.9
20260507110314 12 355 8.0 16.1 0.00 6.65 0.79 96 1012.0
20260507110221 12 348 8.0 16.1 0.00 6.65 0.79 96 1012.0
20260507110112 12 360 9.7 16.1 0.00 6.65 0.79 96 1012.1
20260507110020 12 346 8.0 16.1 0.00 6.65 0.79 96 1012.1
20260507105929 12 333 8.0 16.1 0.00 6.65 0.79 96 1012.1
20260507105816 12 323 6.4 16.1 0.00 6.65 0.79 96 1012.2
20260507105724 11 336 8.0 16.1 0.00 6.65 0.79 96 1012.2
20260507105652 12 5 11.3 16.1 0.00 6.65 0.79 96 1012.2
20260507105522 12 360 11.3 16.1 0.00 6.65 0.79 96 1012.1
20260507105429 12 13 8.0 16.1 0.00 6.65 0.79 96 1012.1
20260507105337 12 323 8.0 16.1 0.00 6.65 0.79 96 1012.2
20260507105223 12 355 9.7 16.1 0.00 6.65 0.79 96 1012.2
20260507105129 12 323 8.0 16.1 0.00 6.65 0.79 96 1012.1
20260507105103 12 332 8.0 16.1 0.00 6.65 0.79 96 1012.1
20260507104838 12 348 4.8 14.5 0.00 6.65 0.79 96 1012.0
20260507104725 12 344 4.8 14.5 0.00 6.65 0.79 96 1012.0
20260507104613 12 9 4.8 14.5 0.00 6.65 0.79 96 1011.8
20260507104521 12 24 4.8 14.5 0.00 6.65 0.79 96 1011.8
20260507104429 12 15 6.4 14.5 0.00 6.65 0.79 96 1011.7
20260507104322 12 9 8.0 14.5 0.00 6.65 0.79 96 1011.7
20260507104228 12 31 8.0 14.5 0.00 6.65 0.79 96 1011.8
20260507104137 12 26 6.4 14.5 0.00 6.65 0.79 96 1011.7
20260507104023 12 18 6.4 14.5 0.00 6.65 0.79 96 1011.7
20260507103930 12 348 6.4 14.5 0.00 6.65 0.79 96 1011.7
20260507103818 12 13 8.0 14.5 0.00 6.65 0.79 96 1011.8
20260507103730 12 34 8.0 17.7 0.00 6.65 0.79 96 1011.8
20260507103638 12 31 6.4 17.7 0.00 6.65 0.79 96 1012.0
20260507103607 12 5 6.4 17.7 0.00 6.65 0.79 96 1012.0
20260507103319 12 355 4.8 17.7 0.00 6.65 0.79 96 1012.1
20260507103226 12 5 6.4 17.7 0.00 6.65 0.79 96 1012.1
20260507103118 12 360 9.7 17.7 0.00 6.65 0.79 96 1012.1
20260507103026 12 5 11.3 17.7 0.00 6.65 0.79 96 1012.1
20260507102934 12 12 11.3 17.7 0.00 6.65 0.79 96 1012.0
20260507102820 12 355 9.7 17.7 0.00 6.65 0.79 96 1012.0
20260507102728 12 5 9.7 17.7 0.00 6.65 0.79 96 1012.0
20260507102620 12 9 8.0 19.3 0.00 6.65 0.79 96 1011.9
20260507102527 12 346 8.0 19.3 0.00 6.65 0.79 96 1011.9
20260507102414 12 5 8.0 19.3 0.00 6.65 0.79 96 1011.9
20260507102322 12 26 8.0 19.3 0.00 6.65 0.79 96 1011.9
20260507102249 12 360 9.7 19.3 0.00 6.65 0.79 96 1011.9
20260507102117 12 355 12.9 19.3 0.00 6.65 0.79 96 1011.9
20260507102052 12 26 11.3 19.3 0.00 6.65 0.79 96 1011.9
20260507101826 12 16 8.0 19.3 0.00 6.65 0.79 96 1011.8
20260507101714 12 24 4.8 20.9 0.00 6.65 0.79 96 1011.7
20260507101622 12 355 6.4 20.9 0.00 6.65 0.79 96 1011.7
20260507101513 12 22 9.7 20.9 0.00 6.65 0.79 96 1011.8
20260507101421 12 35 9.7 20.9 0.00 6.65 0.79 96 1011.8
20260507101329 12 5 11.3 20.9 0.00 6.65 0.79 96 1011.8
20260507101236 12 355 9.7 20.9 0.00 6.65 0.79 96 1011.8
20260507101122 12 355 11.3 20.9 0.00 6.65 0.79 96 1011.8
20260507101050 12 349 11.3 20.9 0.00 6.65 0.79 96 1011.7
20260507100918 12 15 11.3 20.9 0.00 6.65 0.79 96 1011.6
20260507100829 12 340 9.7 20.9 0.00 6.65 0.79 96 1011.6
20260507100716 12 5 11.3 20.9 0.00 6.65 0.79 96 1011.5
20260507100643 12 25 12.9 20.9 0.00 6.65 0.79 96 1011.5
20260507100552 12 332 11.3 20.9 0.00 6.65 0.79 96 1011.5
20260507100311 12 57 11.3 20.9 0.00 6.65 0.79 96 1011.5
20260507100219 12 360 9.7 19.3 0.00 6.65 0.79 96 1011.5
20260507100148 12 15 8.0 17.7 0.00 6.65 0.79 96 1011.5
20260507100014 12 5 9.7 17.7 0.00 6.65 0.79 96 1011.2
20260507095921 12 331 9.7 17.7 0.00 6.65 0.79 96 1011.2
20260507095829 12 355 9.7 17.7 0.00 6.65 0.79 96 1011.2
20260507095720 12 5 9.7 17.7 0.00 6.65 0.79 96 1011.2
20260507095626 12 10 9.7 17.7 0.00 6.65 0.79 96 1011.3
20260507095534 12 5 9.7 17.7 0.00 6.65 0.79 96 1011.5
20260507095442 12 349 8.0 16.1 0.00 6.65 0.79 96 1011.5
20260507095328 12 20 8.0 16.1 0.00 6.65 0.79 96 1011.5
20260507095215 12 26 8.0 16.1 0.00 6.65 0.79 96 1011.6
20260507095142 12 53 8.0 16.1 0.00 6.65 0.79 96 1011.6
20260507095056 12 22 8.0 16.1 0.03 6.65 0.79 96 1011.6
20260507094830 12 34 9.7 16.1 0.03 6.65 0.79 96 1011.8
20260507094718 12 342 8.0 16.1 0.03 6.65 0.79 96 1011.7
20260507094626 12 5 8.0 16.1 0.03 6.65 0.79 96 1011.7
20260507094518 12 12 9.7 16.1 0.03 6.65 0.79 96 1011.6
20260507094426 12 355 9.7 16.1 0.03 6.65 0.79 96 1011.6
20260507094313 12 32 11.3 16.1 0.03 6.65 0.79 96 1011.6
20260507094220 12 5 9.7 16.1 0.03 6.65 0.79 96 1011.6
20260507094149 12 334 9.7 16.1 0.03 6.65 0.79 96 1011.8
20260507094016 12 340 8.0 17.7 0.03 6.65 0.79 96 1012.0
20260507093927 12 319 8.0 17.7 0.03 6.65 0.79 96 1012.0
20260507093813 12 336 9.7 17.7 0.03 6.65 0.79 96 1012.0
20260507093720 12 360 9.7 17.7 0.03 6.65 0.79 96 1012.0
20260507093627 12 360 9.7 22.5 0.03 6.65 0.79 96 1012.1
20260507093556 12 344 9.7 22.5 0.05 6.65 0.79 96 1012.1
20260507093314 12 350 9.7 22.5 0.08 6.65 0.79 96 1011.8
20260507093220 12 349 8.0 22.5 0.08 6.65 0.79 96 1011.8
20260507093129 12 345 8.0 22.5 0.08 6.65 0.79 96 1011.8
20260507093016 12 355 8.0 22.5 0.10 6.65 0.79 96 1011.4
20260507092924 12 30 9.7 22.5 0.10 6.65 0.79 96 1011.4
20260507092816 12 348 14.5 22.5 0.13 6.65 0.79 96 1011.3
20260507092743 12 360 14.5 22.5 0.13 6.65 0.79 96 1011.3
20260507092611 12 355 11.3 19.3 0.15 6.65 0.79 96 1011.1
20260507092520 12 355 9.7 17.7 0.15 6.65 0.79 96 1011.1
20260507092428 12 360 9.7 16.1 0.15 6.65 0.79 96 1011.0
20260507092335 12 14 8.0 16.1 0.18 6.65 0.79 96 1011.1
20260507092225 12 350 6.4 16.1 0.18 6.65 0.79 96 1011.1
20260507092133 12 17 6.4 14.5 0.18 6.65 0.79 96 1011.2
20260507092103 12 355 6.4 14.5 0.20 6.65 0.79 96 1011.1
20260507091836 12 22 8.0 16.1 0.23 6.65 0.79 96 1011.6
20260507091722 12 25 8.0 16.1 0.23 6.65 0.79 96 1011.6
20260507091614 12 360 8.0 16.1 0.28 6.65 0.79 96 1011.5
20260507091521 12 29 9.7 16.1 0.28 6.65 0.79 96 1011.5
20260507091429 12 5 9.7 17.7 0.28 6.65 0.79 96 1011.4
20260507091316 12 16 9.7 17.7 0.36 6.65 0.79 96 1011.4
20260507091223 12 5 9.7 17.7 0.36 6.65 0.79 96 1011.4
20260507091114 12 23 9.7 17.7 0.41 6.65 0.79 96 1011.7
20260507091021 12 9 8.0 17.7 0.41 6.65 0.79 96 1011.7
20260507090929 12 14 8.0 17.7 0.46 6.65 0.79 96 1011.9
20260507090817 12 349 8.0 17.7 0.53 6.65 0.79 96 1011.9
20260507090725 12 360 8.0 17.7 0.53 6.65 0.79 96 1011.9
20260507090612 12 24 9.7 19.3 0.56 6.65 0.79 96 1011.8
20260507090547 12 339 8.0 19.3 0.56 6.65 0.79 96 1011.8
20260507090321 12 355 6.4 19.3 0.58 6.65 0.79 96 1012.0
20260507090227 12 40 6.4 19.3 0.61 6.65 0.79 96 1012.0
20260507090115 12 14 9.7 19.3 0.64 6.65 0.79 96 1011.9
20260507090027 12 348 9.7 19.3 0.64 6.65 0.79 96 1011.9
20260507085934 12 5 9.7 19.3 0.66 6.65 0.79 96 1011.9
20260507085820 12 355 12.9 19.3 0.66 6.65 0.79 96 1011.9
20260507085747 12 321 12.9 19.3 0.66 6.65 0.79 96 1011.9
20260507085614 12 360 11.3 19.3 0.66 6.65 0.79 96 1012.0
20260507085521 12 5 9.7 17.7 0.66 6.65 0.79 96 1012.0
20260507085413 12 5 8.0 17.7 0.66 6.65 0.79 96 1012.0
20260507085320 12 355 9.7 17.7 0.66 6.65 0.79 96 1012.0
20260507085228 12 355 9.7 17.7 0.66 6.65 0.79 96 1012.1
20260507085115 12 355 11.3 17.7 0.64 6.63 0.76 96 1012.0
20260507085046 12 355 9.7 16.1 0.64 6.63 0.76 96 1012.0
20260507084823 12 322 8.0 14.5 0.64 6.63 0.76 96 1011.8
20260507084711 12 11 6.4 16.1 0.64 6.63 0.76 96 1011.7
20260507084619 12 9 6.4 16.1 0.64 6.63 0.76 96 1011.7
20260507084526 12 13 6.4 16.1 0.64 6.63 0.76 96 1011.6
20260507084415 12 355 8.0 16.1 0.64 6.63 0.76 96 1011.3
20260507084326 12 34 6.4 16.1 0.64 6.63 0.76 96 1011.3
20260507084213 12 47 6.4 16.1 0.64 6.63 0.76 96 1011.1
20260507084119 12 73 8.0 20.9 0.64 6.63 0.76 96 1011.2
20260507084027 12 22 8.0 20.9 0.64 6.63 0.76 96 1011.2
20260507083936 12 44 9.7 20.9 0.66 6.63 0.76 96 1011.2
20260507083821 12 355 11.3 22.5 0.66 6.63 0.76 96 1011.2
20260507083713 12 5 9.7 22.5 0.66 6.63 0.76 96 1011.2
20260507083620 12 27 8.0 22.5 0.64 6.60 0.74 96 1011.2
20260507083551 12 11 8.0 22.5 0.64 6.60 0.74 96 1011.1
20260507083324 12 355 11.3 22.5 0.61 6.58 0.71 96 1011.4
20260507083213 12 19 16.1 22.5 0.61 6.58 0.71 95 1010.5
20260507083125 12 42 14.5 22.5 0.58 6.55 0.69 95 1010.5
20260507083012 12 34 11.3 22.5 0.58 6.55 0.69 95 1010.7
20260507082941 12 51 8.0 17.7 0.56 6.53 0.66 96 1010.7
20260507082828 12 360 8.0 17.7 0.58 6.53 0.66 95 1011.3
20260507082714 12 355 8.0 17.7 0.61 6.53 0.66 95 1012.0
20260507082620 12 28 8.0 19.3 0.58 6.50 0.64 95 1012.0
20260507082511 12 355 9.7 20.9 0.64 6.50 0.64 95 1012.2
20260507082418 12 339 11.3 20.9 0.61 6.48 0.61 95 1012.4
20260507082326 12 17 12.9 20.9 0.61 6.48 0.61 95 1012.4
20260507082214 12 320 11.3 20.9 0.61 6.48 0.61 95 1012.5
20260507082123 12 24 11.3 20.9 0.58 6.45 0.58 95 1012.5
20260507082057 12 22 12.9 20.9 0.58 6.45 0.58 95 1012.4
20260507081811 12 345 14.5 20.9 0.56 6.43 0.56 95 1012.3
20260507081718 12 355 14.5 20.9 0.53 6.40 0.53 95 1012.3
20260507081625 12 305 12.9 20.9 0.51 6.38 0.51 95 1012.3
20260507081517 12 327 11.3 17.7 0.51 6.38 0.51 95 1012.3
20260507081444 12 337 9.7 17.7 0.48 6.35 0.48 95 1012.3
20260507081328 12 342 9.7 17.7 0.46 6.32 0.46 95 1011.9
20260507081214 12 11 9.7 17.7 0.41 6.27 0.41 95 1011.7
20260507081120 12 5 9.7 17.7 0.38 6.25 0.38 95 1011.7
20260507081028 12 324 8.0 19.3 0.36 6.22 0.36 95 1012.1
20260507080915 12 349 8.0 19.3 0.28 6.15 0.28 95 1012.4
20260507080827 12 319 8.0 19.3 0.25 6.12 0.25 95 1012.4
20260507080715 12 336 9.7 19.3 0.23 6.10 0.23 95 1012.5
20260507080621 12 348 9.7 19.3 0.23 6.10 0.23 95 1012.5
20260507080551 12 342 8.0 19.3 0.20 6.07 0.20 95 1012.5
20260507080325 12 5 9.7 19.3 0.18 6.05 0.18 95 1012.2
20260507080217 12 355 12.9 19.3 0.18 6.05 0.18 95 1011.8
20260507080125 12 5 14.5 19.3 0.15 6.02 0.15 95 1011.8
20260507080012 12 22 14.5 20.9 0.15 6.02 0.15 95 1011.2
20260507075920 12 15 12.9 20.9 0.13 5.99 0.13 95 1011.2
20260507075826 12 5 12.9 20.9 0.13 5.99 0.13 95 1011.1
20260507075737 12 5 11.3 20.9 0.13 5.99 0.13 95 1011.0
20260507075644 12 5 11.3 20.9 0.13 5.99 0.13 95 1011.0
20260507075530 12 32 11.3 20.9 0.13 5.99 0.13 95 1010.8
20260507075417 12 355 9.7 20.9 0.13 5.99 0.13 95 1010.7
20260507075345 12 28 9.7 20.9 0.13 5.99 0.13 95 1010.7
20260507075232 12 63 11.3 20.9 0.13 5.99 0.13 95 1010.7
20260507075139 12 355 12.9 20.9 0.13 5.99 0.13 95 1010.7
20260507075115 12 30 11.3 22.5 0.13 5.99 0.13 95 1010.7
20260507074827 12 45 9.7 22.5 0.13 5.99 0.13 95 1010.6
20260507074715 12 12 9.7 22.5 0.13 5.99 0.13 95 1010.8
20260507074622 12 23 9.7 22.5 0.13 5.99 0.13 95 1010.8
20260507074530 12 19 9.7 22.5 0.13 5.99 0.13 95 1010.8
20260507074420 12 5 9.7 22.5 0.13 5.99 0.13 95 1010.9
20260507074327 12 42 11.3 22.5 0.13 5.99 0.13 95 1010.9
20260507074214 12 355 14.5 22.5 0.13 5.99 0.13 95 1011.1
20260507074123 12 22 14.5 22.5 0.13 5.99 0.13 95 1011.1
20260507074010 12 42 11.3 22.5 0.13 5.99 0.13 95 1011.0
20260507073921 12 5 11.3 22.5 0.10 5.97 0.10 95 1011.0
20260507073848 12 23 14.5 22.5 0.10 5.97 0.10 95 1011.1
20260507073715 12 33 16.1 22.5 0.10 5.97 0.10 95 1011.2
20260507073643 12 26 16.1 22.5 0.10 5.97 0.10 95 1011.2
20260507073613 12 5 14.5 22.5 0.10 5.97 0.10 95 1011.2
20260507073345 12 360 12.9 22.5 0.10 5.97 0.10 95 1011.4
20260507073214 12 344 12.9 22.5 0.10 5.97 0.10 95 1011.7
20260507073120 12 24 12.9 22.5 0.10 5.97 0.10 95 1011.7
20260507073027 12 34 14.5 22.5 0.10 5.97 0.10 95 1011.6
20260507072913 12 18 16.1 22.5 0.08 5.94 0.08 95 1011.7
20260507072820 12 15 16.1 22.5 0.05 5.92 0.05 95 1011.7
20260507072728 12 14 16.1 22.5 0.05 5.92 0.05 95 1011.8
20260507072619 12 39 16.1 22.5 0.03 5.89 0.03 95 1012.0
20260507072527 12 5 14.5 22.5 0.00 5.87 0.00 95 1012.5
20260507072413 12 360 12.9 22.5 0.00 5.87 0.00 95 1013.3
20260507072320 12 345 14.5 22.5 0.00 5.87 0.00 95 1013.3
20260507072227 12 307 16.1 22.5 0.00 5.87 0.00 95 1013.4
20260507072136 12 311 14.5 22.5 0.00 5.87 0.00 95 1013.3
20260507072110 12 327 11.3 22.5 0.00 5.87 0.00 95 1013.7
20260507071844 12 16 11.3 22.5 0.00 5.87 0.00 95 1012.3
20260507071729 12 5 14.5 22.5 0.00 5.87 0.00 95 1012.1
20260507071618 12 27 14.5 24.1 0.00 5.87 0.00 95 1011.6
20260507071526 12 11 14.5 24.1 0.00 5.87 0.00 95 1011.6
20260507071417 12 360 14.5 24.1 0.00 5.87 0.00 95 1011.4
20260507071323 12 57 14.5 24.1 0.00 5.87 0.00 95 1011.4
20260507071211 12 15 14.5 24.1 0.00 5.87 0.00 95 1011.3
20260507071117 12 25 14.5 24.1 0.00 5.87 0.00 95 1011.2
20260507071024 12 35 12.9 24.1 0.00 5.87 0.00 95 1011.2
20260507070915 12 42 16.1 24.1 0.00 5.87 0.00 95 1011.2
20260507070822 12 9 16.1 24.1 0.00 5.87 0.00 95 1011.2
20260507070729 12 42 12.9 22.5 0.00 5.87 0.00 95 1011.2
20260507070637 12 45 11.3 22.5 0.00 5.87 0.00 95 1011.3
20260507070547 12 67 12.9 22.5 0.00 5.87 0.00 95 1011.3
20260507070323 12 31 14.5 22.5 0.00 5.87 0.00 95 1011.3
20260507070231 12 14 16.1 22.5 0.00 5.87 0.00 95 1011.3
20260507070116 12 29 12.9 20.9 0.00 5.87 0.00 95 1011.6
20260507070022 12 5 12.9 20.9 0.00 5.87 0.00 95 1011.6
20260507065930 12 360 12.9 20.9 0.00 5.87 0.00 95 1011.6
20260507065816 12 355 9.7 20.9 0.00 5.87 0.00 95 1011.7
20260507065743 12 355 8.0 20.9 0.00 5.87 0.00 95 1011.7
20260507065613 12 17 9.7 20.9 0.00 5.87 0.00 95 1011.7
20260507065521 12 20 11.3 24.1 0.00 5.87 0.00 95 1011.7
20260507065449 12 5 12.9 24.1 0.00 5.87 0.00 95 1011.9
20260507065317 12 39 14.5 24.1 0.00 5.87 0.00 95 1011.9
20260507065223 12 349 12.9 24.1 0.00 5.87 0.00 95 1011.9
20260507065131 12 10 12.9 24.1 0.00 5.87 0.00 95 1012.0
20260507065104 12 32 12.9 24.1 0.00 5.87 0.00 95 1012.0
20260507064817 12 17 14.5 24.1 0.00 5.87 0.00 95 1012.2
20260507064745 12 355 14.5 24.1 0.00 5.87 0.00 95 1012.2
20260507064610 12 5 12.9 22.5 0.00 5.87 0.00 95 1012.2
20260507064517 12 13 12.9 22.5 0.00 5.87 0.00 95 1012.2
20260507064429 12 355 12.9 22.5 0.00 5.87 0.00 95 1012.2
20260507064317 12 16 11.3 22.5 0.00 5.87 0.00 95 1012.1
20260507064242 12 355 12.9 19.3 0.00 5.87 0.00 95 1012.1
20260507064130 12 355 12.9 19.3 0.00 5.87 0.00 95 1012.2
20260507064016 12 45 11.3 22.5 0.00 5.87 0.00 95 1012.2
20260507063925 12 355 9.7 24.1 0.00 5.87 0.00 95 1012.2
20260507063837 12 360 9.7 24.1 0.00 5.87 0.00 95 1012.3
20260507063723 12 355 9.7 24.1 0.00 5.87 0.00 95 1012.3
20260507063651 12 350 11.3 24.1 0.00 5.87 0.00 95 1012.2
20260507063601 12 5 12.9 24.1 0.00 5.87 0.00 95 1012.2
20260507063334 12 5 14.5 24.1 0.00 5.87 0.00 95 1012.1
20260507063225 12 32 16.1 24.1 0.00 5.87 0.00 95 1012.1
20260507063112 12 24 16.1 24.1 0.00 5.87 0.00 95 1011.8
20260507063039 12 346 11.3 20.9 0.00 5.87 0.00 95 1011.7
20260507062925 12 360 11.3 20.9 0.00 5.87 0.00 95 1011.7
20260507062813 12 346 14.5 24.1 0.00 5.87 0.00 95 1011.3
20260507062721 12 34 12.9 24.1 0.00 5.87 0.00 95 1011.3
20260507062611 12 14 11.3 24.1 0.00 5.87 0.00 96 1011.2
20260507062518 12 355 11.3 24.1 0.00 5.87 0.00 96 1011.3
20260507062427 12 9 12.9 24.1 0.00 5.87 0.00 96 1011.3
20260507062315 12 15 12.9 24.1 0.00 5.87 0.00 96 1011.5
20260507062242 12 355 12.9 24.1 0.00 5.87 0.00 96 1011.5
20260507062149 12 24 12.9 24.1 0.00 5.87 0.00 96 1011.5
20260507062123 12 5 12.9 24.1 0.00 5.87 0.00 96 1011.6
20260507061835 12 16 12.9 24.1 0.00 5.87 0.00 96 1011.9
20260507061741 12 355 12.9 24.1 0.00 5.87 0.00 96 1011.9
20260507061629 12 20 14.5 24.1 0.00 5.87 0.00 96 1012.0
20260507061515 12 28 12.9 24.1 0.00 5.87 0.00 96 1012.2
20260507061423 12 5 11.3 22.5 0.00 5.87 0.00 96 1012.2
20260507061313 12 355 11.3 22.5 0.00 5.87 0.00 96 1012.2
20260507061221 12 43 12.9 22.5 0.00 5.87 0.00 96 1012.2
20260507061128 12 22 12.9 19.3 0.00 5.87 0.00 96 1012.2
20260507061015 12 42 9.7 19.3 0.00 5.87 0.00 96 1012.2
20260507060942 12 360 8.0 16.1 0.00 5.87 0.00 96 1012.2
20260507060849 12 11 8.0 16.1 0.00 5.87 0.00 96 1012.2
20260507060719 12 11 9.7 16.1 0.00 5.87 0.00 96 1012.2
20260507060626 12 348 9.7 19.3 0.00 5.87 0.00 96 1012.3
20260507060558 13 22 8.0 19.3 0.00 5.87 0.00 96 1012.4
20260507060311 13 355 9.7 19.3 0.00 5.87 0.00 96 1012.3
20260507060222 13 5 9.7 19.3 0.00 5.87 0.00 96 1012.3
20260507060126 13 5 8.0 19.3 0.00 5.87 0.00 96 1012.4
20260507060014 13 21 8.0 19.3 0.00 5.87 0.00 96 1012.5
20260507055942 13 340 11.3 19.3 0.00 5.87 0.00 96 1012.5
20260507055829 13 19 11.3 19.3 0.00 5.87 0.00 96 1012.6
20260507055715 13 9 12.9 19.3 0.00 5.87 0.00 96 1012.5
20260507055622 13 5 12.9 19.3 0.00 5.87 0.00 96 1012.5
20260507055513 13 11 9.7 19.3 0.00 5.87 0.00 96 1012.5
20260507055421 13 348 11.3 19.3 0.00 5.87 0.00 96 1012.5
20260507055329 13 22 11.3 19.3 0.00 5.87 0.00 96 1012.5
20260507055217 13 355 6.4 17.7 0.00 5.87 0.00 96 1012.6
20260507055124 13 355 6.4 16.1 0.00 5.87 0.00 96 1012.6
20260507055058 13 34 6.4 16.1 0.00 5.87 0.00 96 1012.7
20260507054832 13 17 6.4 16.1 0.00 5.87 0.00 96 1012.5
20260507054719 13 348 6.4 16.1 0.00 5.87 0.00 96 1012.5
20260507054626 13 345 8.0 16.1 0.00 5.87 0.00 96 1012.4
20260507054515 13 13 8.0 19.3 0.00 5.87 0.00 96 1012.7
20260507054426 13 9 9.7 19.3 0.00 5.87 0.00 96 1012.7
20260507054314 13 350 9.7 19.3 0.00 5.87 5.87 96 1012.7
20260507054243 13 355 8.0 19.3 0.00 5.87 5.87 96 1012.7
20260507054129 13 18 6.4 19.3 0.00 5.87 5.87 96 1012.7
20260507054017 13 345 4.8 19.3 0.00 5.87 5.87 96 1012.6
20260507053945 13 11 6.4 19.3 0.00 5.87 5.87 96 1012.6
20260507053817 13 16 9.7 19.3 0.00 5.87 5.87 96 1012.7
20260507053724 13 348 11.3 19.3 0.00 5.87 5.87 96 1012.7
20260507053632 13 30 9.7 19.3 0.00 5.87 5.87 96 1012.6
20260507053605 13 348 8.0 17.7 0.00 5.87 5.87 96 1012.5
20260507053322 13 25 9.7 17.7 0.00 5.87 5.87 96 1012.3
20260507053229 13 330 9.7 17.7 0.00 5.87 5.87 96 1012.3
20260507053136 13 9 8.0 17.7 0.00 5.87 5.87 96 1012.1
20260507053041 13 15 8.0 17.7 0.00 5.87 5.87 96 1012.1
20260507052928 13 355 8.0 17.7 0.00 5.87 5.87 96 1012.1
20260507052815 13 37 11.3 17.7 0.00 5.87 5.87 96 1012.1
20260507052723 13 34 11.3 17.7 0.00 5.87 5.87 96 1012.1
20260507052616 13 350 9.7 17.7 0.00 5.87 5.87 96 1012.3
20260507052543 13 9 11.3 17.7 0.00 5.87 5.87 96 1012.3
20260507052429 13 17 11.3 17.7 0.00 5.87 5.87 96 1012.3
20260507052337 13 360 8.0 17.7 0.00 5.87 5.87 96 1012.2
20260507052243 13 33 8.0 17.7 0.00 5.87 5.87 96 1012.2
20260507052129 13 5 8.0 16.1 0.00 5.87 5.87 96 1012.1
20260507052104 13 46 8.0 16.1 0.00 5.87 5.87 96 1012.1
20260507051817 13 19 9.7 16.1 0.00 5.87 5.87 96 1012.2
20260507051725 13 9 9.7 16.1 0.00 5.87 5.87 96 1012.2
20260507051611 13 21 8.0 16.1 0.00 5.87 5.87 96 1012.3
20260507051518 13 35 8.0 16.1 0.00 5.87 5.87 96 1012.3
20260507051429 13 15 8.0 16.1 0.00 5.87 5.87 96 1012.3
20260507051317 13 360 11.3 17.7 0.00 5.87 5.87 96 1012.4
20260507051225 13 31 8.0 17.7 0.00 5.87 5.87 96 1012.4
20260507051113 13 355 6.4 17.7 0.00 5.87 5.87 96 1012.4
20260507051040 13 15 8.0 17.7 0.00 5.87 5.87 96 1012.4
20260507050947 13 355 8.0 17.7 0.00 5.87 5.87 96 1012.4
20260507050818 13 5 9.7 17.7 0.00 5.87 5.87 96 1012.4
20260507050745 13 27 9.7 17.7 0.00 5.87 5.87 96 1012.4
20260507050631 13 360 11.3 17.7 0.00 5.87 5.87 96 1012.5
20260507050602 13 32 11.3 17.7 0.00 5.87 5.87 96 1012.5
20260507050316 13 5 11.3 16.1 0.00 5.87 5.87 96 1012.6
20260507050227 13 360 9.7 14.5 0.00 5.87 5.87 96 1012.6
20260507050114 13 345 8.0 12.9 0.00 5.87 5.87 96 1012.4
20260507050021 13 341 8.0 12.9 0.00 5.87 5.87 96 1012.6
20260507045929 13 323 9.7 12.9 0.00 5.87 5.87 96 1012.6
20260507045817 13 347 8.0 12.9 0.00 5.87 5.87 96 1012.4
20260507045729 13 21 6.4 14.5 0.00 5.87 5.87 96 1012.4
20260507045617 13 9 6.4 16.1 0.00 5.87 5.87 96 1012.3
20260507045525 13 360 6.4 16.1 0.00 5.87 5.87 96 1012.3
20260507045412 13 9 8.0 16.1 0.00 5.87 5.87 96 1012.4
20260507045320 13 5 8.0 16.1 0.00 5.87 5.87 96 1012.5
20260507045212 13 9 8.0 16.1 0.00 5.87 5.87 96 1012.6
20260507045138 13 333 8.0 16.1 0.00 5.87 5.87 96 1012.6
20260507045048 13 10 9.7 16.1 0.00 5.87 5.87 96 1012.6
20260507044822 13 327 9.7 16.1 0.00 5.87 5.87 96 1012.6
20260507044749 13 16 8.0 16.1 0.00 5.87 5.87 96 1012.7
20260507044635 13 360 9.7 16.1 0.00 5.87 5.87 96 1012.4
20260507044526 13 351 9.7 16.1 0.00 5.87 5.87 96 1012.4
20260507044413 13 47 8.0 16.1 0.00 5.87 5.87 96 1012.3
20260507044341 13 5 9.7 19.3 0.00 5.87 5.87 96 1012.3
20260507044248 13 350 9.7 19.3 0.00 5.87 5.87 96 1012.3